Latitude: N 50° 09' 49" Longitude: W 05° 11' 53" Elevation: 168m ASL

There are 7 visitors online

Adverts

<- Previous Day | Today | Next Day ->

All Data for 18 December 2017

Time
A - D
Temp
A - D
Dew Point
A - D
Humidity
A - D
Pressure
A - D
Wind
A - D
Wind Dir Gust
A - D
Rain Rate
A - D
Rain Total
00:00 10.5 10.4 99 1024.2 7.6 NW 7.6 0.8 0.0
00:01 10.5 10.4 99 1024.3 7.6 NW 7.6 0.8 0.0
00:03 10.5 10.4 99 1024.4 7.6 NW 7.6 0.0 0.0
00:04 10.5 10.4 99 1024.3 7.6 NW 7.6 0.0 0.0
00:06 10.5 10.4 99 1024.2 6.0 NW 7.6 0.0 0.0
00:07 10.5 10.4 99 1024.3 6.0 N 7.6 0.0 0.0
00:09 10.5 10.4 99 1024.4 4.5 WSW 7.6 0.0 0.0
00:10 10.5 10.4 99 1024.3 4.5 W 7.6 0.0 0.0
00:11 10.5 10.4 99 1024.3 3.8 NW 7.6 0.0 0.0
00:13 10.5 10.4 99 1024.5 4.5 NW 7.6 0.0 0.0
00:14 10.5 10.4 99 1024.4 5.4 W 7.6 0.0 0.0
00:15 10.5 10.4 99 1024.5 4.5 W 6.9 0.0 0.0
00:16 10.5 10.4 99 1024.5 3.8 WSW 6.9 0.0 0.0
00:17 10.5 10.4 99 1024.4 8.3 NW 8.3 0.0 0.0
00:18 10.5 10.4 99 1024.4 6.9 W 8.3 0.0 0.0
00:19 10.5 10.4 99 1024.4 5.4 NW 8.3 0.0 0.0
00:20 10.5 10.4 99 1024.4 2.2 WSW 8.3 0.0 0.0
00:21 10.5 10.4 99 1024.4 4.5 NW 8.3 0.0 0.0
00:23 10.5 10.4 99 1024.4 4.5 W 8.3 0.0 0.0
00:24 10.5 10.4 99 1024.4 4.5 NW 8.3 0.0 0.0
00:25 10.5 10.4 99 1024.5 4.5 NW 8.3 0.0 0.0
00:26 10.4 10.3 99 1024.4 5.4 NW 8.3 0.0 0.0
00:27 10.5 10.4 99 1024.6 6.0 W 8.3 0.0 0.0
00:28 10.5 10.4 99 1024.6 6.0 W 6.9 0.0 0.0
00:29 10.5 10.4 99 1024.6 5.4 W 6.0 0.0 0.0
00:30 10.4 10.3 99 1024.5 6.9 NW 6.9 0.0 0.0
00:31 10.5 10.4 99 1024.5 5.4 WSW 6.9 0.0 0.0
00:32 10.5 10.4 99 1024.5 5.4 W 6.9 0.0 0.0
00:33 10.5 10.4 99 1024.7 4.5 W 6.9 0.0 0.0
00:34 10.4 10.3 99 1024.6 3.8 W 6.9 0.0 0.0
00:35 10.4 10.3 99 1024.7 6.9 NW 6.9 0.0 0.0
00:36 10.4 10.3 99 1024.7 4.5 NW 6.9 0.0 0.0
00:37 10.4 10.3 99 1024.7 5.4 NW 6.9 0.0 0.0
00:38 10.4 10.3 99 1024.9 4.5 W 6.9 0.0 0.0
00:39 10.5 10.4 99 1024.8 6.0 NW 6.9 0.0 0.0
00:40 10.4 10.3 99 1024.6 4.5 NW 6.9 0.0 0.0
00:42 10.4 10.3 99 1024.7 6.9 NW 7.6 0.0 0.0
00:43 10.5 10.4 99 1024.7 8.3 NW 8.3 0.0 0.0
00:44 10.5 10.4 99 1024.6 8.3 W 8.3 0.0 0.0
00:45 10.5 10.4 99 1024.7 6.9 NW 8.3 0.0 0.0
00:46 10.4 10.3 99 1024.6 8.3 W 9.2 0.0 0.0
00:47 10.4 10.3 99 1024.7 6.9 NW 9.2 0.0 0.0
00:48 10.4 10.3 99 1024.7 7.6 NW 9.2 0.0 0.0
00:49 10.4 10.3 99 1024.6 9.8 W 9.8 0.0 0.0
00:50 10.5 10.4 99 1024.6 9.2 NW 9.8 0.0 0.0
00:51 10.5 10.4 99 1024.5 9.2 W 9.8 0.0 0.0
00:52 10.5 10.4 99 1024.7 6.9 NW 9.8 0.0 0.0
00:53 10.5 10.4 99 1024.4 8.3 W 9.8 0.0 0.0
00:54 10.5 10.4 99 1024.4 6.0 W 9.8 0.0 0.0
00:55 10.5 10.4 99 1024.5 6.0 NW 9.8 0.0 0.0
00:56 10.4 10.3 99 1024.5 5.4 NW 9.8 0.0 0.0
00:57 10.5 10.4 99 1024.6 8.3 NW 9.8 0.0 0.0
00:59 10.4 10.3 99 1024.6 6.9 W 9.8 0.0 0.0
01:00 10.5 10.4 99 1024.5 9.8 W 9.8 0.0 0.0
01:01 10.5 10.4 99 1024.6 9.8 W 9.8 0.0 0.0
01:02 10.5 10.4 99 1024.7 9.8 W 9.8 0.0 0.0
01:03 10.5 10.4 99 1024.6 9.8 W 9.8 0.0 0.0
01:04 10.5 10.4 99 1024.6 9.8 W 9.8 0.0 0.0
01:05 10.5 10.4 99 1024.5 6.9 NW 9.8 0.0 0.0
01:06 10.5 10.4 99 1024.5 4.5 W 9.8 0.0 0.0
01:07 10.5 10.4 99 1024.4 7.6 NW 9.8 0.0 0.0
01:09 10.5 10.4 99 1024.4 8.3 N 9.8 0.0 0.0
01:10 10.5 10.4 99 1024.5 6.9 W 9.8 0.0 0.0
01:11 10.5 10.4 99 1024.5 9.2 W 9.8 0.0 0.0
01:12 10.5 10.4 99 1024.5 6.9 NW 9.8 0.0 0.0
01:13 10.5 10.4 99 1024.5 8.3 W 9.8 0.0 0.0
01:14 10.5 10.4 99 1024.4 6.0 W 10.7 0.0 0.0
01:15 10.5 10.4 99 1024.5 5.4 NW 10.7 0.0 0.0
01:16 10.5 10.4 99 1024.6 8.3 NW 10.7 0.0 0.0
01:17 10.5 10.4 99 1024.6 7.6 NW 10.7 0.0 0.0
01:18 10.5 10.4 99 1024.6 7.6 NW 10.7 0.0 0.0
01:19 10.5 10.4 99 1024.5 6.9 W 10.7 0.0 0.0
01:20 10.5 10.4 99 1024.6 6.9 NW 10.7 0.0 0.0
01:21 10.5 10.4 99 1024.5 8.3 W 10.7 0.0 0.0
01:22 10.5 10.4 99 1024.6 7.6 W 10.7 0.0 0.0
01:23 10.5 10.4 99 1024.5 9.8 NW 9.8 0.0 0.0
01:24 10.5 10.4 99 1024.5 7.6 W 9.8 0.0 0.0
01:25 10.5 10.4 99 1024.6 7.6 NW 9.8 0.0 0.0
01:26 10.5 10.4 99 1024.4 6.9 NW 9.8 0.0 0.0
01:27 10.5 10.4 99 1024.5 8.3 WSW 9.8 0.0 0.0
01:28 10.5 10.4 99 1024.4 7.6 W 9.8 0.0 0.0
01:29 10.5 10.4 99 1024.6 8.3 W 9.8 0.0 0.0
01:31 10.5 10.4 99 1024.7 7.6 WSW 9.8 0.0 0.0
01:32 10.5 10.4 99 1024.9 8.3 W 9.8 0.0 0.0
01:33 10.5 10.4 99 1024.7 8.3 WSW 9.8 0.0 0.0
01:34 10.5 10.4 99 1024.7 11.4 W 11.4 0.0 0.0
01:35 10.5 10.4 99 1024.8 8.3 W 11.4 0.0 0.0
01:36 10.5 10.4 99 1024.7 6.9 W 11.4 0.0 0.0
01:37 10.5 10.4 99 1024.8 6.9 W 11.4 0.0 0.0
01:38 10.5 10.4 99 1024.6 13.6 W 13.6 0.0 0.0
01:39 10.5 10.4 99 1024.7 12.1 NW 13.6 0.0 0.0
01:40 10.5 10.4 99 1024.6 9.2 W 13.6 0.0 0.0
01:41 10.5 10.4 99 1024.6 13.0 W 13.6 0.0 0.0
01:42 10.5 10.4 99 1024.7 13.0 W 13.6 0.0 0.0
01:43 10.5 10.4 99 1024.6 10.7 NW 13.6 0.0 0.0
01:44 10.5 10.4 99 1024.6 13.0 W 13.6 0.0 0.0
01:45 10.5 10.4 99 1024.6 12.1 W 13.6 0.0 0.0
01:46 10.5 10.4 99 1024.5 9.8 NW 13.6 0.0 0.0
01:47 10.5 10.4 99 1024.5 9.8 NW 13.6 0.0 0.0
01:48 10.5 10.4 99 1024.4 12.1 NW 13.0 0.0 0.0
01:49 10.5 10.4 99 1024.5 11.4 NW 13.0 0.0 0.0
01:51 10.5 10.4 99 1024.4 9.2 W 13.0 0.0 0.0
01:52 10.5 10.4 99 1024.4 8.3 W 13.0 0.0 0.0
01:53 10.5 10.4 99 1024.5 11.4 W 13.0 0.0 0.0
01:54 10.5 10.4 99 1024.5 9.2 N 13.0 0.0 0.0
01:55 10.5 10.4 99 1024.5 9.8 W 12.1 0.0 0.0
01:56 10.4 10.3 99 1024.5 12.1 W 12.1 0.0 0.0
01:57 10.5 10.4 99 1024.5 11.4 W 12.1 0.0 0.0
01:58 10.4 10.3 99 1024.6 15.2 W 15.2 0.0 0.0
01:59 10.5 10.4 99 1024.7 10.7 W 15.2 0.0 0.0
02:00 10.4 10.3 99 1024.7 14.5 W 15.2 0.0 0.0
02:01 10.4 10.3 99 1024.7 14.5 W 15.2 0.0 0.0
02:02 10.4 10.3 99 1024.5 14.5 W 15.2 0.0 0.0
02:03 10.4 10.3 99 1024.8 14.5 W 15.2 0.0 0.0
02:04 10.4 10.3 99 1024.7 14.5 W 15.2 0.0 0.0
02:05 10.4 10.3 99 1024.6 13.0 NW 15.2 0.0 0.0
02:07 10.4 10.3 99 1024.7 13.0 NW 15.9 0.0 0.0
02:08 10.4 10.3 99 1024.6 12.1 NW 15.9 0.0 0.0
02:09 10.3 10.2 99 1024.6 13.0 W 15.9 0.0 0.0
02:10 10.3 10.2 99 1024.8 8.3 NW 15.9 0.0 0.0
02:11 10.3 10.2 99 1024.7 12.1 W 15.9 0.0 0.0
02:12 10.3 10.2 99 1024.7 9.8 W 15.9 0.0 0.0
02:13 10.3 10.2 99 1024.8 7.6 W 15.9 0.0 0.0
02:14 10.3 10.2 99 1024.8 9.2 W 15.9 0.0 0.0
02:15 10.3 10.2 99 1024.7 9.8 NW 15.9 0.0 0.0
02:16 10.3 10.2 99 1024.7 12.1 W 13.6 0.0 0.0
02:17 10.3 10.2 99 1024.8 14.5 W 14.5 0.0 0.0
02:18 10.2 10.1 99 1024.8 10.7 W 14.5 0.0 0.0
02:19 10.2 10.1 99 1024.8 9.8 W 14.5 0.0 0.0
02:20 10.2 10.1 99 1024.7 10.7 W 14.5 0.0 0.0
02:21 10.2 10.1 99 1024.7 9.8 NW 14.5 0.0 0.0
02:22 10.2 10.1 99 1024.8 10.7 W 14.5 0.0 0.0
02:23 10.2 10.1 99 1024.8 15.2 W 15.2 0.0 0.0
02:25 10.2 10.1 99 1024.8 11.4 W 15.2 0.0 0.0
02:26 10.1 10.0 99 1024.7 10.7 W 15.2 0.0 0.0
02:27 10.1 10.0 99 1024.8 7.6 W 15.2 0.0 0.0
02:28 10.1 10.0 99 1025.0 4.5 NW 15.2 0.0 0.0
02:29 10.1 10.0 99 1024.8 11.4 W 15.2 0.0 0.0
02:30 10.1 10.0 99 1024.8 13.0 N 15.2 0.0 0.0
02:31 10.1 10.0 99 1024.7 9.8 W 15.2 0.0 0.0
02:32 10.1 10.0 99 1024.8 8.3 N 15.2 0.0 0.0
02:33 10.1 10.0 99 1024.8 6.9 W 15.2 0.0 0.0
02:34 10.1 10.0 99 1024.8 15.2 W 15.2 0.0 0.0
02:35 10.1 10.0 99 1024.9 9.8 W 15.2 0.0 0.0
02:36 10.0 9.9 99 1024.9 9.2 NW 15.2 0.0 0.0
02:37 10.0 9.9 99 1025.0 9.2 W 15.2 0.0 0.0
02:38 10.0 9.9 99 1025.0 6.9 NW 15.2 0.0 0.0
02:39 10.1 10.0 99 1025.0 9.2 NW 15.2 0.0 0.0
02:40 10.0 9.9 99 1025.0 6.0 WNW 15.2 0.0 0.0
02:41 10.1 10.0 99 1025.1 6.9 N 15.2 0.0 0.0
02:42 10.1 10.0 99 1025.0 9.8 W 15.2 0.0 0.0
02:43 10.1 10.0 99 1025.0 10.7 N 15.2 0.0 0.0
02:44 10.1 10.0 99 1024.9 10.7 W 15.2 0.0 0.0
02:45 10.0 9.9 99 1025.0 8.3 NW 10.7 0.0 0.0
02:46 10.0 9.9 99 1025.0 7.6 NW 10.7 0.0 0.0
02:47 10.1 10.0 99 1024.9 8.3 NW 10.7 0.0 0.0
02:49 10.0 9.9 99 1025.0 8.3 NW 10.7 0.0 0.0
02:50 10.1 10.0 99 1025.1 7.6 W 10.7 0.0 0.0
02:51 10.1 10.0 99 1025.0 8.3 NW 10.7 0.0 0.0
02:52 10.0 9.9 99 1025.0 6.0 NW 10.7 0.0 0.0
02:53 10.1 10.0 99 1024.9 9.2 NW 10.7 0.0 0.0
02:54 10.0 9.9 99 1025.0 12.1 NW 12.1 0.0 0.0
02:55 10.1 10.0 99 1024.9 8.3 NW 12.1 0.0 0.0
02:56 10.0 9.9 99 1025.2 15.2 N 15.2 0.0 0.0
02:57 10.0 9.9 99 1025.1 9.2 NW 15.2 0.0 0.0
02:58 10.0 9.9 99 1025.0 5.4 N 15.2 0.0 0.0
02:59 10.0 9.9 99 1025.0 3.8 N 15.2 0.0 0.0
03:00 10.0 9.9 99 1025.2 6.0 NW 15.2 0.0 0.0
03:01 10.0 9.9 99 1024.9 6.0 NW 15.2 0.0 0.0
03:02 10.0 9.9 99 1025.2 6.0 NW 15.2 0.0 0.0
03:03 10.0 9.9 99 1025.2 6.0 NW 15.2 0.0 0.0
03:04 10.0 9.9 99 1025.1 6.0 NW 15.2 0.0 0.0
03:05 10.0 9.9 99 1025.2 7.6 NW 15.2 0.0 0.0
03:07 10.0 9.9 99 1025.2 6.0 W 7.6 0.0 0.0
03:08 10.0 9.9 99 1025.2 6.9 N 7.6 0.0 0.0
03:09 10.0 9.9 99 1025.3 8.3 NW 8.3 0.0 0.0
03:10 10.0 9.9 99 1025.4 6.0 NW 8.3 0.0 0.0
03:12 10.0 9.9 99 1025.4 4.5 NW 8.3 0.0 0.0
03:13 10.0 9.9 99 1025.2 6.0 N 8.3 0.0 0.0
03:14 10.0 9.9 99 1025.4 3.1 WSW 8.3 0.0 0.0
03:15 10.0 9.9 99 1025.2 4.5 NW 8.3 0.0 0.0
03:16 10.0 9.9 99 1025.2 5.4 NW 8.3 0.0 0.0
03:17 10.0 9.9 99 1025.2 5.4 N 8.3 0.0 0.0
03:18 10.0 9.9 99 1025.4 8.3 NW 9.8 0.0 0.0
03:19 10.0 9.9 99 1025.3 11.4 WSW 11.4 0.0 0.0
03:20 10.0 9.9 99 1025.4 10.7 NW 11.4 0.0 0.0
03:21 10.0 9.9 99 1025.4 7.6 N 11.4 0.0 0.0
03:22 10.0 9.9 99 1025.2 11.4 W 11.4 0.0 0.0
03:23 10.0 9.9 99 1025.2 11.4 W 11.4 0.0 0.0
03:24 10.0 9.9 99 1025.3 8.3 N 11.4 0.0 0.0
03:25 10.0 9.9 99 1025.2 7.6 W 11.4 0.0 0.0
03:26 10.0 9.9 99 1025.2 8.3 W 11.4 0.0 0.0
03:27 10.0 9.9 99 1025.4 6.9 NW 11.4 0.0 0.0
03:28 10.0 9.9 99 1025.2 9.2 NW 11.4 0.0 0.0
03:29 10.0 9.9 99 1025.2 6.0 NW 11.4 0.0 0.0
03:30 10.0 9.9 99 1025.3 9.8 WSW 11.4 0.0 0.0
03:31 9.9 9.8 99 1025.3 5.4 NW 11.4 0.0 0.0
03:32 10.0 9.9 99 1025.2 3.8 NW 11.4 0.0 0.0
03:34 10.0 9.9 99 1025.5 14.5 NW 14.5 0.0 0.0
03:35 10.0 9.9 99 1025.2 6.0 NW 14.5 0.0 0.0
03:36 10.0 9.9 99 1025.3 6.0 NW 14.5 0.0 0.0
03:37 10.0 9.9 99 1025.1 8.3 NW 14.5 0.0 0.0
03:38 10.0 9.9 99 1025.3 8.3 NW 14.5 0.0 0.0
03:39 10.0 9.9 99 1025.3 6.9 NW 14.5 0.0 0.0
03:40 10.0 9.9 99 1025.4 9.8 N 14.5 0.0 0.0
03:41 10.0 9.9 99 1025.4 8.3 NW 14.5 0.0 0.0
03:42 10.0 9.9 99 1025.2 5.4 NW 14.5 0.0 0.0
03:43 10.0 9.9 99 1025.3 9.2 NW 14.5 0.0 0.0
03:44 10.0 9.9 99 1025.3 14.5 N 14.5 0.0 0.0
03:45 9.9 9.8 99 1025.4 7.6 NW 14.5 0.0 0.0
03:46 9.9 9.8 99 1025.3 7.6 NW 14.5 0.0 0.0
03:47 10.0 9.9 99 1025.3 9.8 N 14.5 0.0 0.0
03:48 10.0 9.9 99 1025.3 8.3 N 14.5 0.0 0.0
03:49 10.0 9.9 99 1025.2 8.3 N 14.5 0.0 0.0
03:50 10.0 9.9 99 1025.1 7.6 NW 14.5 0.0 0.0
03:51 10.0 9.9 99 1025.2 8.3 N 14.5 0.0 0.0
03:52 9.9 9.8 99 1025.2 9.8 NW 14.5 0.0 0.0
03:53 10.0 9.9 99 1025.3 5.4 NW 14.5 0.0 0.0
03:55 9.9 9.8 99 1025.3 6.0 NW 11.4 0.0 0.0
03:56 9.9 9.8 99 1025.3 8.3 N 11.4 0.0 0.0
03:57 9.9 9.8 99 1025.4 10.7 NW 11.4 0.0 0.0
03:58 9.9 9.8 99 1025.5 6.0 NW 11.4 0.0 0.0
03:59 9.9 9.8 99 1025.5 7.6 NW 11.4 0.0 0.0
04:00 9.9 9.8 99 1025.7 8.3 NW 11.4 0.0 0.0
04:01 9.9 9.8 99 1025.5 8.3 NW 11.4 0.0 0.0
04:02 9.9 9.8 99 1025.5 8.3 NW 11.4 0.0 0.0
04:03 9.9 9.8 99 1025.6 8.3 NW 10.7 0.0 0.0
04:04 9.9 9.8 99 1025.7 8.3 NW 10.7 0.0 0.0
04:05 9.9 9.8 99 1025.6 4.5 NW 10.7 0.0 0.0
04:07 9.9 9.8 99 1025.6 6.0 N 8.3 0.0 0.0
04:08 9.8 9.7 99 1025.7 4.5 NW 8.3 0.0 0.0
04:09 9.8 9.7 99 1025.7 5.4 NW 8.3 0.0 0.0
04:10 9.9 9.8 99 1025.7 4.5 NW 8.3 0.0 0.0
04:12 9.8 9.7 99 1025.7 6.0 NW 8.3 0.0 0.0
04:13 9.8 9.7 99 1025.7 3.8 NW 8.3 0.0 0.0
04:14 9.8 9.7 99 1025.7 3.8 NW 8.3 0.0 0.0
04:15 9.8 9.7 99 1025.6 5.4 N 8.3 0.0 0.0
04:16 9.8 9.7 99 1025.7 5.4 NE 8.3 0.0 0.0
04:17 9.8 9.7 99 1025.7 6.9 N 8.3 0.0 0.0
04:18 9.8 9.7 99 1025.7 6.9 NW 8.3 0.0 0.0
04:19 9.8 9.7 99 1025.8 4.5 NE 8.3 0.0 0.0
04:20 9.8 9.7 99 1025.6 3.1 NE 8.3 0.0 0.0
04:21 9.8 9.7 99 1025.7 6.9 NW 8.3 0.0 0.0
04:22 9.8 9.7 99 1025.7 2.2 NW 6.9 0.0 0.0
04:23 9.8 9.7 99 1025.7 4.5 N 6.9 0.0 0.0
04:24 9.8 9.7 99 1025.7 8.3 N 8.3 0.0 0.0
04:25 9.8 9.7 99 1025.7 5.4 N 8.3 0.0 0.0
04:26 9.8 9.7 99 1025.8 4.5 N 8.3 0.0 0.0
04:27 9.8 9.7 99 1025.8 9.2 N 9.2 0.0 0.0
04:28 9.8 9.7 99 1025.8 3.8 N 9.2 0.0 0.0
04:29 9.8 9.7 99 1025.8 5.4 NW 9.2 0.0 0.0
04:30 9.8 9.7 99 1025.8 3.8 NW 9.2 0.0 0.0
04:31 9.8 9.7 99 1025.9 3.1 NW 9.2 0.0 0.0
04:32 9.8 9.7 99 1025.9 4.5 NW 9.2 0.0 0.0
04:34 9.7 9.6 99 1025.8 6.0 N 9.2 0.0 0.0
04:35 9.7 9.6 99 1025.8 4.5 N 9.2 0.0 0.0
04:36 9.7 9.6 99 1025.7 3.8 N 9.2 0.0 0.0
04:37 9.7 9.6 99 1025.8 6.0 N 9.2 0.0 0.0
04:38 9.7 9.6 99 1026.0 7.6 NE 9.2 0.0 0.0
04:39 9.7 9.6 99 1026.0 5.4 N 7.6 0.0 0.0
04:40 9.7 9.6 99 1025.8 3.1 N 7.6 0.0 0.0
04:41 9.7 9.6 99 1026.0 3.1 N 7.6 0.0 0.0
04:42 9.7 9.6 99 1026.0 6.0 NW 7.6 0.0 0.0
04:43 9.7 9.6 99 1026.1 4.5 NW 7.6 0.0 0.0
04:44 9.7 9.6 99 1026.0 4.5 N 7.6 0.0 0.0
04:45 9.7 9.6 99 1026.1 3.1 N 7.6 0.0 0.0
04:46 9.7 9.6 99 1026.0 3.1 N 7.6 0.0 0.0
04:47 9.6 9.5 99 1026.0 6.9 N 7.6 0.0 0.0
04:48 9.7 9.6 99 1026.2 6.0 NE 6.9 0.0 0.0
04:49 9.6 9.5 99 1026.1 3.1 NE 6.9 0.0 0.0
04:50 9.6 9.5 99 1026.0 4.5 N 6.9 0.0 0.0
04:51 9.6 9.5 99 1026.2 4.5 N 6.9 0.0 0.0
04:52 9.6 9.5 99 1026.1 2.2 N 6.9 0.0 0.0
04:53 9.5 9.4 99 1026.2 5.4 N 6.9 0.0 0.0
04:54 9.6 9.5 99 1026.2 5.4 N 6.9 0.0 0.0
04:56 9.5 9.4 99 1026.0 3.1 N 6.9 0.0 0.0
04:57 9.5 9.4 99 1026.1 2.2 N 6.9 0.0 0.0
04:58 9.5 9.4 99 1026.3 3.8 N 6.9 0.0 0.0
04:59 9.5 9.4 99 1026.3 3.1 N 6.0 0.0 0.0
05:00 9.5 9.4 99 1026.2 2.2 N 6.0 0.0 0.0
05:01 9.5 9.4 99 1026.1 2.2 N 6.0 0.0 0.0
05:02 9.5 9.4 99 1026.3 2.2 N 5.4 0.0 0.0
05:03 9.5 9.4 99 1026.1 2.2 N 5.4 0.0 0.0
05:04 9.5 9.4 99 1026.2 2.2 N 5.4 0.0 0.0
05:05 9.3 9.2 99 1026.2 3.1 N 3.8 0.0 0.0
05:07 9.3 9.2 99 1026.0 6.9 N 6.9 0.0 0.0
05:08 9.3 9.2 99 1026.3 3.1 N 6.9 0.0 0.0
05:10 9.2 9.1 99 1026.2 3.8 N 6.9 0.0 0.0
05:11 9.2 9.1 99 1026.1 3.8 N 6.9 0.0 0.0
05:12 9.2 9.1 99 1026.3 5.4 N 6.9 0.0 0.0
05:13 9.1 9.0 99 1026.3 3.8 N 6.9 0.0 0.0
05:14 9.1 9.0 99 1026.3 3.1 NE 6.9 0.0 0.0
05:15 9.0 8.9 99 1026.2 3.8 NE 6.9 0.0 0.0
05:16 9.0 8.9 99 1026.3 3.1 NE 6.9 0.0 0.0
05:17 8.9 8.8 99 1026.3 3.1 NE 5.4 0.0 0.0
05:18 8.9 8.8 99 1026.4 3.1 NE 5.4 0.0 0.0
05:19 8.8 8.7 99 1026.3 3.8 NE 5.4 0.0 0.0
05:20 8.8 8.7 99 1026.5 3.8 NE 5.4 0.0 0.0
05:21 8.8 8.7 99 1026.3 3.8 NE 5.4 0.0 0.0
05:22 8.7 8.6 99 1026.3 3.8 NE 4.5 0.0 0.0
05:23 8.7 8.6 99 1026.4 3.1 NE 4.5 0.0 0.0
05:24 8.6 8.5 99 1026.4 2.2 NE 4.5 0.0 0.0
05:25 8.6 8.5 99 1026.4 2.2 NE 4.5 0.0 0.0
05:26 8.6 8.5 99 1026.5 3.1 NE 4.5 0.0 0.0
05:28 8.5 8.4 99 1026.4 3.1 NE 4.5 0.0 0.0
05:29 8.5 8.4 99 1026.4 3.1 NE 4.5 0.0 0.0
05:30 8.4 8.3 99 1026.5 2.2 NE 4.5 0.0 0.0
05:31 8.4 8.3 99 1026.4 2.2 NE 4.5 0.0 0.0
05:32 8.4 8.3 99 1026.5 3.1 NE 4.5 0.0 0.0
05:33 8.3 8.2 99 1026.4 2.2 NE 4.5 0.0 0.0
05:34 8.3 8.2 99 1026.4 3.8 NE 3.8 0.0 0.0
05:35 8.3 8.2 99 1026.4 3.8 NE 3.8 0.0 0.0
05:36 8.3 8.2 99 1026.4 3.1 NE 3.8 0.0 0.0
05:37 8.2 8.1 99 1026.4 3.1 NE 3.8 0.0 0.0
05:38 8.2 8.1 99 1026.4 3.8 N 3.8 0.0 0.0
05:39 8.1 8.0 99 1026.4 3.1 N 3.8 0.0 0.0
05:40 8.1 8.0 99 1026.4 2.2 N 3.8 0.0 0.0
05:41 8.0 7.9 99 1026.4 3.1 N 3.8 0.0 0.0
05:42 8.0 7.9 99 1026.3 2.2 N 3.8 0.0 0.0
05:43 8.0 7.9 99 1026.3 2.2 N 3.8 0.0 0.0
05:44 8.0 7.9 99 1026.4 3.1 N 3.8 0.0 0.0
05:46 7.9 7.8 99 1026.4 2.2 N 3.8 0.0 0.0
05:47 7.9 7.8 99 1026.3 3.1 N 3.8 0.0 0.0
05:48 7.9 7.8 99 1026.2 2.2 N 3.8 0.0 0.0
05:49 7.9 7.8 99 1026.4 2.2 N 3.1 0.0 0.0
05:50 7.8 7.7 99 1026.5 1.6 N 3.1 0.0 0.0
05:51 7.8 7.7 99 1026.3 3.1 N 3.1 0.0 0.0
05:52 7.8 7.7 99 1026.4 3.1 N 3.1 0.0 0.0
05:53 7.8 7.7 99 1026.2 3.8 N 3.8 0.0 0.0
05:54 7.7 7.6 99 1026.2 3.8 N 3.8 0.0 0.0
05:55 7.7 7.6 99 1026.4 3.8 N 3.8 0.0 0.0
05:56 7.7 7.6 99 1026.4 3.8 N 3.8 0.0 0.0
05:57 7.7 7.6 99 1026.6 2.2 N 3.8 0.0 0.0
05:58 7.7 7.6 99 1026.4 2.2 N 3.8 0.0 0.0
05:59 7.6 7.5 99 1026.3 2.2 N 3.8 0.0 0.0
06:00 7.6 7.5 99 1026.4 2.2 N 3.8 0.0 0.0
06:01 7.6 7.5 99 1026.7 2.2 N 3.8 0.0 0.0
06:02 7.6 7.5 99 1026.6 2.2 N 3.8 0.0 0.0
06:03 7.6 7.5 99 1026.5 2.2 N 3.8 0.0 0.0
06:05 7.6 7.5 99 1026.6 2.2 N 3.8 0.0 0.0
06:06 7.6 7.5 99 1026.6 3.1 N 3.8 0.0 0.0
06:07 7.6 7.5 99 1026.5 4.5 N 4.5 0.0 0.0
06:09 7.5 7.4 99 1026.6 3.1 N 4.5 0.0 0.0
06:10 7.5 7.4 99 1026.6 3.1 N 4.5 0.0 0.0
06:12 7.5 7.4 99 1026.6 3.8 N 4.5 0.0 0.0
06:13 7.5 7.4 99 1026.7 4.5 N 4.5 0.0 0.0
06:14 7.5 7.4 99 1026.7 3.1 N 4.5 0.0 0.0
06:15 7.5 7.4 99 1026.6 2.2 N 4.5 0.0 0.0
06:16 7.5 7.4 99 1026.8 3.1 N 4.5 0.0 0.0
06:17 7.5 7.4 99 1026.7 3.8 N 4.5 0.0 0.0
06:18 7.5 7.4 99 1027.0 3.1 N 4.5 0.0 0.0
06:19 7.4 7.3 99 1026.9 3.8 N 4.5 0.0 0.0
06:20 7.4 7.3 99 1026.9 2.2 N 4.5 0.0 0.0
06:21 7.4 7.3 99 1026.9 3.1 N 4.5 0.0 0.0
06:22 7.4 7.3 99 1026.9 3.1 N 4.5 0.0 0.0
06:23 7.4 7.3 99 1026.8 3.8 N 3.8 0.0 0.0
06:24 7.3 7.2 99 1026.9 3.8 N 3.8 0.0 0.0
06:25 7.3 7.2 99 1027.0 3.1 N 3.8 0.0 0.0
06:26 7.3 7.2 99 1027.0 3.1 N 3.8 0.0 0.0
06:27 7.3 7.2 99 1026.9 2.2 N 3.8 0.0 0.0
06:28 7.3 7.2 99 1026.9 2.2 N 3.8 0.0 0.0
06:30 7.2 7.1 99 1026.9 3.1 N 3.8 0.0 0.0
06:31 7.2 7.1 99 1027.2 3.1 N 3.8 0.0 0.0
06:32 7.2 7.1 99 1027.0 3.8 N 3.8 0.0 0.0
06:33 7.2 7.1 99 1027.2 2.2 N 3.8 0.0 0.0
06:34 7.2 7.1 99 1027.1 2.2 N 3.8 0.0 0.0
06:35 7.2 7.1 99 1027.2 2.2 N 3.8 0.0 0.0
06:36 7.1 7.0 99 1027.2 3.8 N 3.8 0.0 0.0
06:37 7.2 7.1 99 1027.3 3.1 N 3.8 0.0 0.0
06:38 7.1 7.0 99 1027.4 3.8 N 3.8 0.0 0.0
06:39 7.1 7.0 99 1027.3 4.5 N 4.5 0.0 0.0
06:40 7.1 7.0 99 1027.4 3.1 N 4.5 0.0 0.0
06:41 7.1 7.0 99 1027.4 3.1 N 4.5 0.0 0.0
06:42 7.1 7.0 99 1027.5 2.2 N 4.5 0.0 0.0
06:43 7.1 7.0 99 1027.4 2.2 N 4.5 0.0 0.0
06:44 7.0 6.9 99 1027.4 1.6 N 4.5 0.0 0.0
06:46 7.0 6.9 99 1027.5 2.2 N 4.5 0.0 0.0
06:47 7.0 6.9 99 1027.5 3.1 N 4.5 0.0 0.0
06:48 7.0 6.9 99 1027.5 2.2 N 4.5 0.0 0.0
06:49 7.0 6.9 99 1027.5 1.6 N 4.5 0.0 0.0
06:50 7.0 6.9 99 1027.4 3.1 N 3.1 0.0 0.0
06:51 7.0 6.9 99 1027.4 2.2 N 3.1 0.0 0.0
06:52 7.0 6.9 99 1027.4 2.2 N 3.1 0.0 0.0
06:53 6.9 6.8 99 1027.5 3.1 N 3.1 0.0 0.0
06:54 6.9 6.8 99 1027.5 3.1 N 3.1 0.0 0.0
06:55 6.9 6.8 99 1027.6 3.1 N 3.1 0.0 0.0
06:56 6.9 6.8 99 1027.5 3.1 N 3.1 0.0 0.0
06:57 6.9 6.8 99 1027.5 3.1 N 3.1 0.0 0.0
06:58 6.8 6.7 99 1027.4 2.2 N 3.1 0.0 0.0
06:59 6.9 6.8 99 1027.4 3.1 N 3.1 0.0 0.0
07:01 6.8 6.7 99 1027.5 3.8 N 3.8 0.0 0.0
07:02 6.8 6.7 99 1027.5 3.8 N 3.8 0.0 0.0
07:03 6.8 6.7 99 1027.4 3.8 N 3.8 0.0 0.0
07:04 6.8 6.7 99 1027.4 3.8 N 3.8 0.0 0.0
07:05 6.8 6.7 99 1027.4 4.5 N 4.5 0.0 0.0
07:06 6.8 6.7 99 1027.5 3.1 N 4.5 0.0 0.0
07:08 6.8 6.7 99 1027.6 3.1 N 4.5 0.0 0.0
07:09 6.8 6.7 99 1027.7 3.1 N 4.5 0.0 0.0
07:11 6.7 6.6 99 1027.6 1.6 N 4.5 0.0 0.0
07:12 6.7 6.6 99 1027.6 2.2 N 4.5 0.0 0.0
07:13 6.7 6.6 99 1027.6 3.8 N 4.5 0.0 0.0
07:14 6.7 6.6 99 1027.5 2.2 N 4.5 0.0 0.0
07:15 6.7 6.6 99 1027.7 3.1 N 4.5 0.0 0.0
07:17 6.7 6.6 99 1027.7 2.2 N 3.8 0.0 0.0
07:18 6.7 6.6 99 1027.7 1.6 N 3.8 0.0 0.0
07:19 6.7 6.6 99 1027.8 3.1 N 3.8 0.0 0.0
07:20 6.7 6.6 99 1027.7 2.2 N 3.8 0.0 0.0
07:21 6.7 6.6 99 1027.6 1.6 N 3.8 0.0 0.0
07:22 6.7 6.6 99 1027.7 1.6 N 3.8 0.0 0.0
07:23 6.6 6.5 99 1027.7 2.2 N 3.8 0.0 0.0
07:24 6.6 6.5 99 1027.7 1.6 N 3.1 0.0 0.0
07:25 6.6 6.5 99 1027.8 2.2 N 3.1 0.0 0.0
07:26 6.6 6.5 99 1027.8 2.2 N 3.1 0.0 0.0
07:27 6.6 6.5 99 1027.8 3.1 N 3.1 0.0 0.0
07:28 6.6 6.5 99 1027.7 3.1 N 3.1 0.0 0.0
07:29 6.6 6.5 99 1027.7 2.2 N 3.1 0.0 0.0
07:30 6.6 6.5 99 1027.7 2.2 N 3.1 0.0 0.0
07:31 6.5 6.4 99 1027.9 2.2 N 3.1 0.8 0.1
07:32 6.5 6.4 99 1027.9 2.2 N 3.1 0.8 0.1
07:33 6.5 6.4 99 1028.0 3.8 N 3.8 0.8 0.1
07:34 6.5 6.4 99 1027.8 2.2 N 3.8 0.8 0.1
07:35 6.5 6.4 99 1027.9 3.1 N 3.8 0.8 0.1
07:36 6.5 6.4 99 1027.9 1.6 N 3.8 0.0 0.1
07:37 6.5 6.4 99 1027.9 2.2 N 3.8 0.0 0.1
07:38 6.5 6.4 99 1027.9 1.6 N 3.8 0.0 0.1
07:39 6.4 6.3 99 1027.8 2.2 N 3.8 0.0 0.1
07:40 6.4 6.3 99 1028.0 3.1 N 3.8 0.0 0.1
07:42 6.4 6.3 99 1028.0 3.8 N 3.8 0.0 0.1
07:43 6.4 6.3 99 1028.0 4.5 NE 4.5 0.0 0.1
07:44 6.4 6.3 99 1028.0 3.8 NE 4.5 0.0 0.1
07:45 6.3 6.2 99 1028.0 3.8 NE 4.5 0.0 0.1
07:46 6.3 6.2 99 1028.1 3.8 NE 4.5 0.0 0.1
07:48 6.3 6.2 99 1028.0 3.1 NE 4.5 0.0 0.1
07:49 6.3 6.2 99 1028.1 4.5 NE 4.5 0.0 0.1
07:50 6.4 6.3 99 1027.9 3.1 NE 4.5 0.0 0.1
07:51 6.3 6.2 99 1027.9 4.5 NE 4.5 0.0 0.1
07:52 6.4 6.3 99 1027.9 3.8 NE 4.5 0.0 0.1
07:53 6.4 6.3 99 1028.0 3.8 NE 4.5 0.0 0.1
07:54 6.4 6.3 99 1028.1 3.8 NE 4.5 0.0 0.1
07:55 6.4 6.3 99 1028.1 3.8 NE 4.5 0.0 0.1
07:56 6.4 6.3 99 1028.1 3.1 NE 4.5 0.0 0.1
07:57 6.4 6.3 99 1028.2 3.1 NE 4.5 0.0 0.1
07:58 6.4 6.3 99 1028.1 3.8 NE 4.5 0.0 0.1
07:59 6.4 6.3 99 1028.2 3.8 NE 4.5 0.0 0.1
08:00 6.4 6.3 99 1028.2 3.1 NE 4.5 0.0 0.1
08:01 6.4 6.3 99 1028.2 3.1 NE 4.5 0.0 0.1
08:02 6.4 6.3 99 1028.2 3.1 NE 3.8 0.0 0.1
08:03 6.4 6.3 99 1028.1 3.1 NE 3.8 0.0 0.1
08:04 6.4 6.3 99 1028.5 3.1 NE 3.8 0.0 0.1
08:05 6.4 6.3 99 1028.2 2.2 NE 3.8 0.0 0.1
08:06 6.4 6.3 99 1028.3 2.2 NE 3.8 0.0 0.1
08:07 6.4 6.3 99 1028.3 2.2 NE 3.8 0.0 0.1
08:09 6.4 6.3 99 1028.4 2.2 NE 3.8 0.0 0.1
08:10 6.4 6.3 99 1028.4 2.2 NE 3.1 0.0 0.1
08:12 6.3 6.2 99 1028.4 1.6 NE 3.1 0.0 0.1
08:13 6.3 6.2 99 1028.5 2.2 NE 3.1 0.0 0.1
08:14 6.3 6.2 99 1028.5 1.6 NE 3.1 0.0 0.1
08:15 6.3 6.2 99 1028.4 1.6 NE 2.2 0.0 0.1
08:16 6.3 6.2 99 1028.5 2.2 NE 2.2 0.0 0.1
08:17 6.2 6.1 99 1028.6 1.6 NE 2.2 0.0 0.1
08:18 6.2 6.1 99 1028.5 1.6 NE 2.2 0.0 0.1
08:19 6.2 6.1 99 1028.7 0.7 NE 2.2 0.0 0.1
08:20 6.2 6.1 99 1028.5 1.6 NE 2.2 0.0 0.1
08:21 6.1 6.0 99 1028.5 1.6 NE 2.2 0.0 0.1
08:22 6.1 6.0 99 1028.5 1.6 NE 2.2 0.0 0.1
08:23 6.1 6.0 99 1028.4 1.6 NE 2.2 0.0 0.1
08:24 6.1 6.0 99 1028.5 0.7 NE 2.2 0.0 0.1
08:25 6.1 6.0 99 1028.5 1.6 NE 2.2 0.0 0.1
08:26 6.0 5.9 99 1028.6 0.7 NE 1.6 0.0 0.1
08:27 6.0 5.9 99 1028.7 2.2 NE 2.2 0.0 0.1
08:28 6.0 5.9 99 1028.5 1.6 NE 2.2 0.0 0.1
08:29 6.0 5.9 99 1028.5 0.7 NE 2.2 0.0 0.1
08:30 6.0 5.9 99 1028.6 0.7 NE 2.2 0.0 0.1
08:31 6.0 5.9 99 1028.7 0.7 NE 2.2 0.0 0.1
08:32 6.0 5.9 99 1028.8 0.7 NE 2.2 0.0 0.1
08:33 5.9 5.8 99 1028.6 0.7 NE 2.2 0.0 0.1
08:34 5.9 5.8 99 1028.6 1.6 NE 2.2 0.0 0.1
08:35 5.9 5.8 99 1028.6 1.6 NE 2.2 0.0 0.1
08:36 5.9 5.8 99 1028.7 2.2 NE 2.2 0.0 0.1
08:37 5.9 5.8 99 1028.7 2.2 NE 2.2 0.0 0.1
08:38 5.9 5.8 99 1028.6 2.2 NE 2.2 0.0 0.1
08:39 5.8 5.7 99 1028.7 3.1 NE 3.1 0.0 0.1
08:40 5.8 5.7 99 1028.7 3.1 NE 3.1 0.0 0.1
08:41 5.8 5.7 99 1028.7 3.8 NE 3.8 0.0 0.1
08:42 5.8 5.7 99 1028.7 3.1 NE 3.8 0.0 0.1
08:43 5.9 5.8 99 1028.8 3.1 NE 3.8 0.0 0.1
08:44 5.8 5.7 99 1028.7 3.1 NE 3.8 0.0 0.1
08:45 5.9 5.8 99 1028.8 3.1 NE 3.8 0.0 0.1
08:46 5.9 5.8 99 1028.7 3.1 NE 3.8 0.0 0.1
08:47 5.9 5.8 99 1028.7 3.8 NE 3.8 0.0 0.1
08:48 5.9 5.8 99 1028.7 3.1 NE 3.8 0.0 0.1
08:49 5.9 5.8 99 1028.7 3.8 NE 3.8 0.0 0.1
08:50 5.9 5.8 99 1028.8 2.2 NE 3.8 0.0 0.1
08:51 5.9 5.8 99 1028.9 3.1 NE 3.8 0.0 0.1
08:52 5.9 5.8 99 1028.7 2.2 NE 3.8 0.0 0.1
08:53 5.9 5.8 99 1028.9 0.7 NE 3.8 0.0 0.1
08:54 5.9 5.8 99 1028.8 1.6 NE 3.8 0.0 0.1
08:56 6.0 5.9 99 1028.9 1.6 NE 3.8 0.0 0.1
08:57 6.0 5.9 99 1028.9 2.2 NE 3.8 0.0 0.1
08:58 6.0 5.9 99 1028.8 1.6 NE 3.8 0.0 0.1
08:59 6.0 5.9 99 1028.9 1.6 NE 3.8 0.0 0.1
09:00 6.0 5.9 99 1028.9 2.2 NE 3.1 0.0 0.1
09:01 6.0 5.9 99 1029.0 2.2 NE 3.1 0.0 0.1
09:02 6.0 5.9 99 1028.9 2.2 NE 2.2 0.0 0.1
09:03 6.0 5.9 99 1028.9 2.2 NE 2.2 0.0 0.1
09:04 6.0 5.9 99 1029.0 2.2 NE 2.2 0.0 0.1
09:05 5.9 5.8 99 1028.9 3.8 NE 3.8 0.0 0.1
09:06 5.9 5.8 99 1029.0 3.8 NE 3.8 0.0 0.1
09:08 6.0 5.9 99 1029.0 3.1 NE 3.8 0.0 0.1
09:09 6.0 5.9 99 1029.0 2.2 NE 3.8 0.0 0.1
09:11 6.0 5.9 99 1028.9 2.2 NE 3.8 0.0 0.1
09:12 6.0 5.9 99 1028.8 3.8 NE 3.8 0.0 0.1
09:13 6.0 5.9 99 1028.9 4.5 NE 4.5 0.0 0.1
09:14 6.0 5.9 99 1028.9 3.1 NE 4.5 0.0 0.1
09:15 6.0 5.9 99 1029.0 1.6 NE 4.5 0.0 0.1
09:16 6.0 5.9 99 1029.0 0.7 NE 4.5 0.0 0.1
09:17 6.0 5.9 99 1028.9 0.7 NE 4.5 0.0 0.1
09:18 6.0 5.9 99 1029.0 3.1 NE 4.5 0.0 0.1
09:19 6.0 5.9 99 1029.0 3.1 NE 4.5 0.0 0.1
09:20 6.0 5.9 99 1029.1 3.1 NE 4.5 0.0 0.1
09:21 6.0 5.9 99 1029.1 2.2 NE 4.5 0.0 0.1
09:22 6.0 5.9 99 1029.0 1.6 NE 4.5 0.0 0.1
09:24 6.0 5.9 99 1029.2 1.6 NE 3.8 0.0 0.1
09:25 6.1 6.0 99 1029.1 3.1 NE 3.8 0.0 0.1
09:26 6.1 6.0 99 1029.0 1.6 NE 3.8 0.0 0.1
09:27 6.1 6.0 99 1029.1 0.7 NE 3.8 0.0 0.1
09:28 6.1 6.0 99 1029.2 0.7 NE 3.8 0.0 0.1
09:29 6.1 6.0 99 1029.2 0.7 NE 3.8 0.0 0.1
09:30 6.1 6.0 99 1029.2 0.7 NE 3.8 0.0 0.1
09:31 6.2 6.1 99 1029.3 1.6 NE 3.8 0.0 0.1
09:32 6.2 6.1 99 1029.3 1.6 NE 3.8 0.0 0.1
09:33 6.2 6.1 99 1029.2 0.7 NE 3.1 0.0 0.1
09:34 6.2 6.1 99 1029.2 0.0 NE 3.1 0.0 0.1
09:35 6.2 6.1 99 1029.3 0.7 NE 3.1 0.0 0.1
09:36 6.2 6.1 99 1029.2 0.7 NE 1.6 0.0 0.1
09:37 6.3 6.2 99 1029.2 0.0 NE 1.6 0.0 0.1
09:38 6.3 6.2 99 1029.3 2.2 NE 2.2 0.0 0.1
09:39 6.4 6.3 99 1029.3 3.1 NE 3.1 0.0 0.1
09:40 6.3 6.2 99 1029.3 0.7 NE 3.1 0.0 0.1
09:41 6.3 6.2 99 1029.3 1.6 NE 3.1 0.0 0.1
09:42 6.4 6.3 99 1029.3 1.6 NE 3.1 0.0 0.1
09:43 6.4 6.3 99 1029.3 1.6 NE 3.1 0.0 0.1
09:44 6.4 6.3 99 1029.3 1.6 NE 3.1 0.0 0.1
09:45 6.4 6.3 99 1029.5 1.6 NE 3.1 0.0 0.1
09:46 6.5 6.4 99 1029.3 1.6 NE 3.1 0.0 0.1
09:47 6.5 6.4 99 1029.4 0.7 NE 3.1 0.0 0.1
09:48 6.5 6.4 99 1029.6 1.6 NE 3.1 0.0 0.1
09:49 6.6 6.5 99 1029.5 2.2 NE 2.2 0.0 0.1
09:50 6.6 6.5 99 1029.5 1.6 NE 2.2 0.0 0.1
09:51 6.6 6.5 99 1029.4 0.7 NE 2.2 0.0 0.1
09:52 6.7 6.6 99 1029.5 1.6 NE 2.2 0.0 0.1
09:54 6.7 6.6 99 1029.6 2.2 NE 2.2 0.0 0.1
09:55 6.7 6.6 99 1029.6 1.6 NE 2.2 0.0 0.1
09:56 6.7 6.6 99 1029.6 1.6 NE 2.2 0.0 0.1
09:57 6.8 6.7 99 1029.5 1.6 NE 2.2 0.0 0.1
09:58 6.8 6.7 99 1029.6 1.6 NE 2.2 0.0 0.1
09:59 6.8 6.7 99 1029.6 1.6 NE 2.2 0.0 0.1
10:00 6.9 6.8 99 1029.6 2.2 NE 2.2 0.0 0.1
10:01 6.9 6.8 99 1029.7 2.2 NE 2.2 0.0 0.1
10:02 6.9 6.8 99 1029.7 2.2 NE 2.2 0.0 0.1
10:03 6.9 6.8 99 1029.7 2.2 NE 2.2 0.0 0.1
10:04 6.9 6.8 99 1029.8 2.2 NE 2.2 0.0 0.1
10:05 7.0 6.9 99 1029.9 2.2 NE 2.2 0.0 0.1
10:06 7.0 6.9 99 1029.7 3.1 NE 3.1 0.0 0.1
10:08 7.1 7.0 99 1029.8 1.6 NE 3.1 0.0 0.1
10:09 7.1 7.0 99 1029.7 3.1 NE 3.1 0.0 0.1
10:11 7.2 7.1 99 1029.9 3.8 NE 3.8 0.0 0.1
10:12 7.2 7.1 99 1029.7 3.1 NE 3.8 0.0 0.1
10:13 7.2 7.1 99 1029.8 3.1 N 3.8 0.0 0.1
10:14 7.3 7.2 99 1029.8 3.8 N 3.8 0.0 0.1
10:15 7.3 7.2 99 1029.9 2.2 N 3.8 0.0 0.1
10:17 7.4 7.3 99 1029.8 2.2 N 3.8 0.0 0.1
10:18 7.4 7.3 99 1029.8 2.2 N 3.8 0.0 0.1
10:19 7.4 7.3 99 1029.7 2.2 N 3.8 0.0 0.1
10:20 7.4 7.3 99 1030.0 2.2 N 3.8 0.0 0.1
10:21 7.5 7.4 99 1029.8 3.1 N 3.8 0.0 0.1
10:22 7.5 7.4 99 1030.1 4.5 N 4.5 0.0 0.1
10:23 7.5 7.4 99 1029.9 2.2 N 4.5 0.0 0.1
10:24 7.5 7.4 99 1029.9 2.2 N 4.5 0.0 0.1
10:25 7.6 7.5 99 1030.0 3.1 N 4.5 0.0 0.1
10:26 7.7 7.6 99 1030.2 2.2 N 4.5 0.0 0.1
10:27 7.7 7.6 99 1030.1 2.2 N 4.5 0.0 0.1
10:28 7.8 7.7 99 1030.2 1.6 N 4.5 0.0 0.1
10:29 7.8 7.7 99 1030.1 2.2 N 4.5 0.0 0.1
10:30 7.8 7.7 99 1030.1 1.6 N 4.5 0.0 0.1
10:31 7.9 7.8 99 1030.1 2.2 N 4.5 0.0 0.1
10:32 7.9 7.8 99 1030.1 1.6 N 3.1 0.0 0.1
10:33 7.9 7.8 99 1030.1 1.6 N 3.1 0.0 0.1
10:35 8.0 7.9 99 1030.2 1.6 N 3.1 0.0 0.1
10:36 8.0 7.9 99 1030.2 1.6 N 2.2 0.0 0.1
10:37 8.1 8.0 99 1030.2 1.6 N 3.1 0.0 0.1
10:38 8.1 8.0 99 1030.2 2.2 N 3.1 0.0 0.1
10:39 8.1 8.0 99 1030.2 2.2 N 3.1 0.0 0.1
10:40 8.2 8.1 99 1030.1 2.2 N 3.1 0.0 0.1
10:41 8.2 8.1 99 1030.2 2.2 N 3.1 0.0 0.1
10:42 8.3 8.2 99 1030.2 1.6 N 3.1 0.0 0.1
10:43 8.3 8.2 99 1030.4 2.2 N 3.1 0.0 0.1
10:44 8.3 8.2 99 1030.2 1.6 N 3.1 0.0 0.1
10:45 8.4 8.3 99 1030.3 0.7 N 3.1 0.0 0.1
10:46 8.5 8.4 99 1030.4 1.6 N 3.1 0.0 0.1
10:47 8.5 8.4 99 1030.3 3.1 N 3.1 0.0 0.1
10:48 8.6 8.5 99 1030.3 5.4 NE 5.4 0.0 0.1
10:49 8.6 8.5 99 1030.4 2.2 NE 5.4 0.0 0.1
10:50 8.6 8.5 99 1030.3 0.7 NE 5.4 0.0 0.1
10:51 8.7 8.6 99 1030.4 0.7 NE 5.4 0.0 0.1
10:52 8.8 8.7 99 1030.4 3.8 NE 5.4 0.0 0.1
10:53 8.8 8.7 99 1030.3 2.2 NE 5.4 0.0 0.1
10:54 8.8 8.7 99 1030.3 1.6 NE 5.4 0.0 0.1
10:55 8.9 8.8 99 1030.4 3.1 NE 5.4 0.0 0.1
10:56 8.9 8.8 99 1030.3 3.8 NE 5.4 0.0 0.1
10:57 8.9 8.8 99 1030.3 3.8 NE 5.4 0.0 0.1
10:59 8.9 8.8 99 1030.2 3.8 NE 3.8 0.0 0.1
11:00 8.9 8.8 99 1030.2 4.5 NE 4.5 0.0 0.1
11:01 8.9 8.8 99 1030.2 4.5 NE 4.5 0.0 0.1
11:02 8.9 8.8 99 1030.3 4.5 NE 4.5 0.0 0.1
11:03 8.9 8.8 99 1030.4 4.5 NE 4.5 0.0 0.1
11:04 8.9 8.8 99 1030.3 4.5 NE 4.5 0.0 0.1
11:05 9.0 8.9 99 1030.3 3.8 NE 4.5 0.0 0.1
11:07 9.0 8.9 99 1030.2 4.5 NE 5.4 0.0 0.1
11:08 9.1 9.0 99 1030.3 5.4 NE 5.4 0.0 0.1
11:10 9.1 9.0 99 1030.2 6.9 NE 6.9 0.0 0.1
11:11 9.1 9.0 99 1030.3 5.4 NE 6.9 0.0 0.1
11:13 9.2 9.1 99 1030.3 2.2 NE 6.9 0.0 0.1
11:14 9.2 9.1 99 1030.2 2.2 NE 6.9 0.0 0.1
11:15 9.2 9.1 99 1030.3 3.1 NE 6.9 0.0 0.1
11:16 9.2 9.1 99 1030.2 3.1 NE 6.9 0.0 0.1
11:17 9.2 9.1 99 1030.2 6.0 NE 6.9 0.0 0.1
11:18 9.2 9.1 99 1030.2 4.5 NE 6.9 0.0 0.1
11:19 9.2 9.1 99 1030.2 5.4 NE 6.9 0.0 0.1
11:20 9.2 9.1 99 1030.3 6.0 NE 6.9 0.0 0.1
11:21 9.2 9.1 99 1030.2 6.9 NE 6.9 0.0 0.1
11:22 9.3 9.2 99 1030.3 4.5 NE 6.9 0.0 0.1
11:23 9.2 9.1 99 1030.3 4.5 NE 6.9 0.0 0.1
11:24 9.3 9.2 99 1030.2 4.5 NE 6.9 0.0 0.1
11:25 9.3 9.2 99 1030.2 6.0 NE 6.9 0.0 0.1
11:26 9.3 9.2 99 1030.3 3.8 NE 6.9 0.0 0.1
11:27 9.4 9.3 99 1030.4 3.8 NE 6.9 0.0 0.1
11:28 9.4 9.3 99 1030.4 3.1 NE 6.9 0.0 0.1
11:29 9.4 9.3 99 1030.4 6.0 NE 6.9 0.0 0.1
11:30 9.4 9.3 99 1030.5 4.5 NE 6.9 0.0 0.1
11:31 9.5 9.4 99 1030.3 3.8 NE 6.0 0.0 0.1
11:32 9.5 9.4 99 1030.3 6.9 N 6.9 0.0 0.1
11:33 9.5 9.4 99 1030.4 4.5 N 6.9 0.0 0.1
11:34 9.6 9.5 99 1030.3 6.0 NE 6.9 0.0 0.1
11:35 9.6 9.5 99 1030.4 3.1 NE 6.9 0.0 0.1
11:36 9.6 9.5 99 1030.4 5.4 E 6.9 0.0 0.1
11:37 9.6 9.5 99 1030.3 3.1 N 6.9 0.0 0.1
11:38 9.7 9.6 99 1030.5 3.8 N 6.9 0.0 0.1
11:39 9.7 9.6 99 1030.5 3.1 N 6.9 0.0 0.1
11:41 9.7 9.6 99 1030.5 4.5 N 6.9 0.0 0.1
11:42 9.7 9.6 99 1030.5 4.5 N 6.9 0.0 0.1
11:43 9.7 9.6 99 1030.5 7.6 NE 7.6 0.0 0.1
11:44 9.8 9.7 99 1030.5 2.2 NE 7.6 0.0 0.1
11:45 9.8 9.7 99 1030.5 2.2 NE 7.6 0.0 0.1
11:46 9.8 9.7 99 1030.5 2.2 N 7.6 0.0 0.1
11:47 9.8 9.7 99 1030.5 6.0 N 7.6 0.0 0.1
11:48 9.8 9.7 99 1030.4 3.1 N 7.6 0.0 0.1
11:49 9.9 9.8 99 1030.5 4.5 N 7.6 0.0 0.1
11:50 9.9 9.8 99 1030.3 2.2 N 7.6 0.0 0.1
11:51 9.9 9.8 99 1030.5 4.5 N 7.6 0.0 0.1
11:52 9.9 9.8 99 1030.5 5.4 N 7.6 0.0 0.1
11:53 9.9 9.8 99 1030.4 4.5 NE 7.6 0.0 0.1
11:54 9.9 9.8 99 1030.5 3.1 NE 6.0 0.0 0.1
11:55 10.0 9.9 99 1030.4 3.8 NE 6.0 0.0 0.1
11:56 10.0 9.9 99 1030.4 4.5 NE 6.0 0.0 0.1
11:57 10.0 9.9 99 1030.4 1.6 NE 5.4 0.0 0.1
11:58 10.0 9.9 99 1030.5 3.1 NE 5.4 0.0 0.1
11:59 10.1 10.0 99 1030.4 3.1 NE 5.4 0.0 0.1
12:00 10.1 10.0 99 1030.4 3.1 NE 5.4 0.0 0.1
12:01 10.1 10.0 99 1030.5 4.5 NE 5.4 0.0 0.1
12:02 10.2 10.1 99 1030.5 3.8 NE 4.5 0.0 0.1
12:03 10.2 10.1 99 1030.3 1.6 NE 4.5 0.0 0.1
12:04 10.2 10.1 99 1030.3 1.6 NE 4.5 0.0 0.1
12:05 10.2 10.1 99 1030.4 2.2 NE 4.5 0.0 0.1
12:07 10.3 10.2 99 1030.4 2.2 NE 4.5 0.0 0.1
12:09 10.3 10.2 99 1030.3 3.1 NE 4.5 0.0 0.1
12:10 10.4 10.3 99 1030.3 2.2 SE 4.5 0.0 0.1
12:12 10.4 10.3 99 1030.5 2.2 SE 3.8 0.0 0.1
12:13 10.4 10.3 99 1030.5 3.1 E 3.8 0.0 0.1
12:14 10.4 10.3 99 1030.4 2.2 E 3.1 0.0 0.1
12:15 10.4 10.3 99 1030.4 3.1 NE 3.1 0.0 0.1
12:16 10.5 10.4 99 1030.4 3.8 NE 3.8 0.0 0.1
12:17 10.5 10.4 99 1030.5 3.1 NE 3.8 0.0 0.1
12:18 10.5 10.4 99 1030.5 3.1 NE 3.8 0.0 0.1
12:19 10.5 10.4 99 1030.5 3.1 NE 5.4 0.0 0.1
12:20 10.5 10.4 99 1030.4 4.5 NE 5.4 0.0 0.1
12:21 10.5 10.4 99 1030.6 3.8 NE 5.4 0.0 0.1
12:22 10.5 10.4 99 1030.5 3.8 N 5.4 0.0 0.1
12:23 10.5 10.4 99 1030.4 4.5 NE 5.4 0.0 0.1
12:24 10.5 10.4 99 1030.5 3.8 NE 5.4 0.0 0.1
12:25 10.5 10.4 99 1030.5 5.4 NE 5.4 0.0 0.1
12:26 10.5 10.4 99 1030.5 5.4 NE 6.0 0.0 0.1
12:27 10.5 10.4 99 1030.6 3.1 N 6.0 0.0 0.1
12:29 10.6 10.5 99 1030.4 3.8 N 6.0 0.0 0.1
12:30 10.5 10.4 99 1030.3 3.1 N 6.0 0.0 0.1
12:31 10.6 10.5 99 1030.4 3.1 N 6.0 0.0 0.1
12:32 10.6 10.5 99 1030.5 0.7 N 6.0 0.0 0.1
12:33 10.6 10.5 99 1030.5 2.2 N 6.0 0.0 0.1
12:34 10.6 10.5 99 1030.5 3.1 E 6.0 0.0 0.1
12:35 10.6 10.5 99 1030.3 6.0 NE 6.0 0.0 0.1
12:36 10.7 10.6 99 1030.4 3.8 NE 6.0 0.0 0.1
12:37 10.7 10.6 99 1030.5 2.2 NE 6.0 0.0 0.1
12:38 10.7 10.6 99 1030.3 2.2 NE 6.0 0.0 0.1
12:39 10.7 10.6 99 1030.4 3.1 NE 6.0 0.0 0.1
12:40 10.7 10.6 99 1030.4 3.8 NE 6.0 0.0 0.1
12:41 10.7 10.6 99 1030.6 3.1 N 6.0 0.0 0.1
12:42 10.7 10.6 99 1030.4 3.1 N 6.0 0.0 0.1
12:43 10.7 10.6 99 1030.5 3.8 N 6.0 0.0 0.1
12:44 10.7 10.6 99 1030.4 3.1 N 6.0 0.0 0.1
12:45 10.7 10.6 99 1030.5 4.5 N 4.5 0.0 0.1
12:46 10.7 10.6 99 1030.5 3.1 NE 4.5 0.0 0.1
12:47 10.6 10.5 99 1030.4 3.8 NE 4.5 0.0 0.1
12:48 10.6 10.5 99 1030.3 2.2 NE 4.5 0.0 0.1
12:49 10.6 10.5 99 1030.4 3.8 NE 4.5 0.0 0.1
12:50 10.7 10.6 99 1030.5 2.2 N 4.5 0.0 0.1
12:51 10.7 10.6 99 1030.4 6.0 N 6.0 0.0 0.1
12:52 10.7 10.6 99 1030.2 2.2 N 6.0 0.0 0.1
12:53 10.7 10.6 99 1030.4 3.8 N 6.0 0.0 0.1
12:55 10.7 10.6 99 1030.3 3.8 N 6.0 0.0 0.1
12:56 10.7 10.6 99 1030.3 2.2 N 6.0 0.0 0.1
12:57 10.8 10.7 99 1030.5 2.2 N 6.0 0.0 0.1
12:58 10.8 10.7 99 1030.4 2.2 N 6.0 0.0 0.1
12:59 10.8 10.7 99 1030.4 5.4 N 6.0 0.0 0.1
13:00 10.9 10.8 99 1030.4 5.4 N 6.0 0.0 0.1
13:01 10.9 10.8 99 1030.4 5.4 N 6.0 0.0 0.1
13:02 10.9 10.8 99 1030.4 5.4 N 5.4 0.0 0.1
13:03 10.9 10.8 99 1030.5 5.4 N 5.4 0.0 0.1
13:04 10.9 10.8 99 1030.3 5.4 N 5.4 0.0 0.1
13:05 10.9 10.8 99 1030.4 5.4 NE 5.4 0.0 0.1
13:07 10.9 10.8 99 1030.4 4.5 NE 5.4 0.0 0.1
13:09 10.9 10.8 99 1030.2 4.5 NE 5.4 0.0 0.1
13:10 11.0 10.9 99 1030.3 1.6 NE 5.4 0.0 0.1
13:12 11.0 10.9 99 1030.3 4.5 N 5.4 0.0 0.1
13:13 11.0 10.9 99 1030.4 3.8 NE 5.4 0.0 0.1
13:14 11.0 10.9 99 1030.4 3.8 NE 5.4 0.0 0.1
13:15 11.0 10.9 99 1030.5 3.1 NE 5.4 0.0 0.1
13:16 11.0 10.9 99 1030.4 3.1 NE 5.4 0.0 0.1
13:17 11.0 10.9 99 1030.4 3.8 NE 5.4 0.0 0.1
13:18 11.0 10.7 98 1030.3 3.8 NE 5.4 0.0 0.1
13:19 11.0 10.7 98 1030.4 4.5 N 5.4 0.0 0.1
13:21 11.0 10.7 98 1030.4 4.5 N 6.0 0.0 0.1
13:22 11.0 10.7 98 1030.4 3.8 N 6.0 0.0 0.1
13:23 11.1 10.8 98 1030.4 2.2 N 6.0 0.0 0.1
13:24 11.1 10.8 98 1030.4 2.2 N 6.0 0.0 0.1
13:25 11.1 10.8 98 1030.4 6.9 N 6.9 0.0 0.1
13:26 11.1 10.8 98 1030.3 4.5 NE 6.9 0.0 0.1
13:27 11.1 10.6 97 1030.4 3.8 NE 6.9 0.0 0.1
13:28 11.1 10.6 97 1030.5 4.5 NE 6.9 0.0 0.1
13:29 11.1 10.5 96 1030.5 3.8 NE 6.9 0.0 0.1
13:30 11.1 10.6 97 1030.5 5.4 NE 6.9 0.0 0.1
13:31 11.0 10.5 97 1030.5 3.8 NE 6.9 0.0 0.1
13:32 11.0 10.5 97 1030.6 3.1 NE 6.9 0.0 0.1
13:33 11.0 10.4 96 1030.5 3.1 NE 6.9 0.0 0.1
13:34 11.0 10.4 96 1030.5 2.2 NE 6.9 0.0 0.1
13:35 11.1 10.6 97 1030.5 1.6 NE 6.9 0.0 0.1
13:36 11.0 10.5 97 1030.4 1.6 N 5.4 0.0 0.1
13:37 11.0 10.5 97 1030.5 3.8 NE 5.4 0.0 0.1
13:38 11.0 10.5 97 1030.4 2.2 NE 5.4 0.0 0.1
13:39 11.0 10.5 97 1030.5 4.5 NE 5.4 0.0 0.1
13:40 11.1 10.6 97 1030.4 2.2 NE 5.4 0.0 0.1
13:41 11.0 10.5 97 1030.5 2.2 NE 5.4 0.0 0.1
13:42 11.1 10.6 97 1030.4 3.1 NE 5.4 0.0 0.1
13:43 11.1 10.6 97 1030.5 2.2 NE 5.4 0.0 0.1
13:44 11.1 10.6 97 1030.5 3.1 W 5.4 0.0 0.1
13:45 11.1 10.5 96 1030.5 3.1 NE 4.5 0.0 0.1
13:46 11.1 10.5 96 1030.5 2.2 NE 4.5 0.0 0.1
13:47 11.1 10.5 96 1030.4 3.1 NE 4.5 0.0 0.1
13:48 11.1 10.5 96 1030.5 3.8 N 4.5 0.0 0.1
13:49 11.1 10.5 96 1030.4 3.1 N 3.8 0.0 0.1
13:50 11.1 10.5 96 1030.6 2.2 N 3.8 0.0 0.1
13:52 11.1 10.5 96 1030.6 2.2 N 3.8 0.0 0.1
13:53 11.1 10.5 96 1030.5 3.1 N 3.8 0.0 0.1
13:54 11.1 10.5 96 1030.5 3.1 N 3.8 0.0 0.1
13:55 11.1 10.5 96 1030.5 1.6 E 3.8 0.0 0.1
13:56 11.1 10.5 96 1030.4 3.1 E 3.8 0.0 0.1
13:57 11.1 10.5 96 1030.4 4.5 SE 4.5 0.0 0.1
13:58 11.0 10.4 96 1030.5 5.4 SE 5.4 0.0 0.1
13:59 11.0 10.4 96 1030.4 1.6 SE 5.4 0.0 0.1
14:00 11.0 10.4 96 1030.5 1.6 SE 5.4 0.0 0.1
14:01 11.0 10.4 96 1030.5 1.6 SE 5.4 0.0 0.1
14:02 11.0 10.4 96 1030.4 2.2 E 5.4 0.0 0.1
14:03 11.0 10.4 96 1030.5 1.6 E 5.4 0.0 0.1
14:04 11.0 10.4 96 1030.5 1.6 E 5.4 0.0 0.1
14:05 11.0 10.4 96 1030.3 4.5 NE 5.4 0.0 0.1
14:06 11.0 10.4 96 1030.5 5.4 N 5.4 0.0 0.1
14:08 11.0 10.4 96 1030.3 3.1 N 6.9 0.0 0.1
14:09 11.0 10.4 96 1030.5 2.2 N 6.9 0.0 0.1
14:11 10.9 10.3 96 1030.5 3.1 N 6.9 0.0 0.1
14:12 10.9 10.3 96 1030.4 3.1 N 6.9 0.0 0.1
14:13 10.8 10.2 96 1030.4 2.2 N 6.9 0.0 0.1
14:14 10.8 10.2 96 1030.5 1.6 N 6.9 0.0 0.1
14:15 10.8 10.2 96 1030.4 2.2 N 6.9 0.0 0.1
14:16 10.7 10.1 96 1030.4 2.2 N 6.9 0.0 0.1
14:17 10.7 10.1 96 1030.4 1.6 N 3.1 0.0 0.1
14:19 10.7 10.1 96 1030.5 2.2 N 3.1 0.0 0.1
14:20 10.7 10.1 96 1030.6 1.6 N 3.1 0.0 0.1
14:21 10.6 10.0 96 1030.4 1.6 N 3.1 0.0 0.1
14:22 10.6 10.0 96 1030.4 1.6 N 3.1 0.0 0.1
14:23 10.6 10.0 96 1030.5 3.1 N 3.1 0.0 0.1
14:24 10.5 9.9 96 1030.3 3.1 N 3.1 0.0 0.1
14:25 10.6 10.0 96 1030.4 1.6 N 3.1 0.0 0.1
14:26 10.5 9.9 96 1030.5 1.6 N 3.1 0.0 0.1
14:27 10.5 9.9 96 1030.4 2.2 N 3.1 0.0 0.1
14:28 10.5 9.9 96 1030.3 2.2 N 3.1 0.0 0.1
14:29 10.5 10.0 97 1030.4 2.2 N 3.1 0.0 0.1
14:30 10.4 9.9 97 1030.3 2.2 N 3.1 0.0 0.1
14:31 10.4 9.9 97 1030.5 1.6 N 3.1 0.0 0.1
14:32 10.5 10.0 97 1030.3 2.2 N 3.1 0.0 0.1
14:33 10.5 10.0 97 1030.5 1.6 N 3.1 0.0 0.1
14:34 10.5 10.0 97 1030.4 1.6 N 3.1 0.0 0.1
14:35 10.5 10.0 97 1030.4 1.6 N 2.2 0.0 0.1
14:36 10.5 10.0 97 1030.5 1.6 N 2.2 0.0 0.1
14:37 10.5 10.0 97 1030.5 0.7 N 2.2 0.0 0.1
14:38 10.5 10.0 97 1030.5 0.7 N 2.2 0.0 0.1
14:39 10.5 10.0 97 1030.5 0.7 N 2.2 0.0 0.1
14:40 10.5 10.0 97 1030.5 1.6 N 2.2 0.0 0.1
14:41 10.5 10.0 97 1030.6 0.7 N 2.2 0.0 0.1
14:42 10.5 10.0 97 1030.5 3.1 NE 3.1 0.0 0.1
14:43 10.5 10.0 97 1030.5 2.2 NE 3.1 0.0 0.1
14:44 10.6 10.1 97 1030.5 0.7 NE 3.1 0.0 0.1
14:45 10.5 10.0 97 1030.6 0.7 NE 3.1 0.0 0.1
14:46 10.6 10.1 97 1030.6 1.6 NE 3.1 0.0 0.1
14:47 10.5 10.0 97 1030.5 1.6 NE 3.1 0.0 0.1
14:48 10.6 10.1 97 1030.5 1.6 NE 3.1 0.0 0.1
14:49 10.6 10.1 97 1030.6 1.6 NE 3.1 0.0 0.1
14:50 10.6 10.1 97 1030.6 2.2 NE 3.1 0.0 0.1
14:51 10.6 10.1 97 1030.6 1.6 NE 3.1 0.0 0.1
14:52 10.6 10.1 97 1030.7 1.6 NE 3.1 0.0 0.1
14:53 10.6 10.1 97 1030.5 1.6 NE 2.2 0.0 0.1
14:54 10.6 10.1 97 1030.7 1.6 NE 2.2 0.0 0.1
14:55 10.6 10.1 97 1030.5 2.2 NE 2.2 0.0 0.1
14:56 10.6 10.1 97 1030.6 0.7 NE 2.2 0.0 0.1
14:57 10.6 10.1 97 1030.5 0.7 NE 2.2 0.0 0.1
14:58 10.6 10.1 97 1030.7 0.7 NE 2.2 0.0 0.1
14:59 10.6 10.1 97 1030.5 0.7 NE 2.2 0.0 0.1
15:00 10.6 10.1 97 1030.5 1.6 NE 2.2 0.0 0.1
15:01 10.6 10.1 97 1030.5 1.6 NE 2.2 0.0 0.1
15:03 10.6 10.1 97 1030.6 2.2 NE 2.2 0.0 0.1
15:04 10.6 10.1 97 1030.7 1.6 NE 2.2 0.0 0.1
15:05 10.6 10.1 97 1030.7 1.6 NE 2.2 0.0 0.1
15:06 10.5 10.0 97 1030.7 1.6 NE 2.2 0.0 0.1
15:07 10.5 10.0 97 1030.7 0.7 NE 2.2 0.0 0.1
15:09 10.5 10.0 97 1030.7 0.7 NE 2.2 0.0 0.1
15:10 10.5 10.0 97 1030.7 1.6 NE 2.2 0.0 0.1
15:12 10.4 9.9 97 1030.8 1.6 NE 2.2 0.0 0.1
15:13 10.4 9.9 97 1030.9 1.6 NE 2.2 0.0 0.1
15:14 10.4 9.9 97 1030.7 0.7 NE 2.2 0.0 0.1
15:15 10.4 9.9 97 1030.7 1.6 NE 2.2 0.0 0.1
15:16 10.4 9.9 97 1030.6 1.6 NE 2.2 0.0 0.1
15:17 10.4 9.9 97 1030.8 2.2 NE 2.2 0.0 0.1
15:18 10.4 9.9 97 1030.6 1.6 NE 2.2 0.0 0.1
15:19 10.4 9.9 97 1030.5 1.6 NE 2.2 0.0 0.1
15:20 10.4 9.9 97 1030.7 1.6 NE 2.2 0.0 0.1
15:21 10.4 9.9 97 1030.6 0.7 NE 2.2 0.0 0.1
15:22 10.3 9.8 97 1030.7 1.6 NE 2.2 0.0 0.1
15:24 10.3 9.8 97 1030.7 0.7 NE 2.2 0.0 0.1
15:25 10.3 9.8 97 1030.5 0.7 NE 2.2 0.0 0.1
15:26 10.3 9.8 97 1030.6 1.6 NE 2.2 0.0 0.1
15:27 10.4 9.9 97 1030.7 1.6 NE 2.2 0.0 0.1
15:28 10.3 9.8 97 1030.7 1.6 NE 2.2 0.0 0.1
15:29 10.3 9.8 97 1030.7 0.7 NE 2.2 0.0 0.1
15:30 10.3 9.8 97 1030.7 0.7 NE 2.2 0.0 0.1
15:31 10.3 9.8 97 1030.7 1.6 NE 2.2 0.0 0.1
15:32 10.3 9.8 97 1030.8 1.6 NE 2.2 0.0 0.1
15:33 10.3 9.8 97 1030.6 1.6 NE 2.2 0.0 0.1
15:34 10.3 9.8 97 1030.7 0.7 NE 2.2 0.0 0.1
15:35 10.3 9.8 97 1030.8 0.7 NE 2.2 0.0 0.1
15:36 10.3 9.8 97 1030.8 1.6 NE 2.2 0.0 0.1
15:37 10.3 9.8 97 1030.7 0.7 NE 1.6 0.0 0.1
15:38 10.3 9.8 97 1030.8 0.7 NE 1.6 0.0 0.1
15:39 10.3 9.8 97 1030.8 0.7 NE 1.6 0.0 0.1
15:40 10.2 9.7 97 1030.7 0.7 NE 1.6 0.0 0.1
15:41 10.2 9.7 97 1030.7 0.7 NE 1.6 0.0 0.1
15:42 10.2 9.7 97 1030.6 1.6 NE 1.6 0.0 0.1
15:43 10.2 9.7 97 1030.8 1.6 NE 1.6 0.0 0.1
15:44 10.1 9.5 96 1030.8 0.7 NE 1.6 0.0 0.1
15:45 10.1 9.5 96 1030.7 0.7 NE 1.6 0.0 0.1
15:46 10.1 9.5 96 1030.7 0.0 NE 1.6 0.0 0.1
15:47 10.0 9.4 96 1030.8 0.7 NE 1.6 0.0 0.1
15:48 10.0 9.4 96 1030.7 0.7 NE 1.6 0.0 0.1
15:49 9.9 9.3 96 1030.8 0.7 NE 1.6 0.0 0.1
15:51 9.9 9.3 96 1030.7 0.7 NE 1.6 0.0 0.1
15:52 9.8 9.2 96 1030.7 0.7 NE 1.6 0.0 0.1
15:53 9.8 9.2 96 1030.7 0.7 NE 1.6 0.0 0.1
15:54 9.7 9.1 96 1030.8 0.7 NE 0.7 0.0 0.1
15:55 9.7 9.1 96 1030.6 0.7 NE 0.7 0.0 0.1
15:56 9.7 9.1 96 1030.8 0.7 NE 0.7 0.0 0.1
15:57 9.6 9.0 96 1030.7 0.7 NE 0.7 0.0 0.1
15:58 9.6 9.0 96 1030.8 0.7 NE 0.7 0.0 0.1
15:59 9.6 9.1 97 1030.7 0.0 NE 0.7 0.0 0.1
16:00 9.5 8.9 96 1030.8 0.7 NE 0.7 0.0 0.1
16:01 9.5 8.9 96 1031.0 0.7 NE 0.7 0.0 0.1
16:02 9.5 9.0 97 1030.7 0.7 NE 1.6 0.0 0.1
16:03 9.4 8.9 97 1031.0 0.7 NE 1.6 0.0 0.1
16:04 9.4 8.9 97 1031.1 1.6 NE 1.6 0.0 0.1
16:05 9.4 8.9 97 1030.9 0.7 NE 1.6 0.0 0.1
16:06 9.3 8.8 97 1031.0 0.7 NE 1.6 0.0 0.1
16:07 9.3 8.8 97 1030.9 0.0 NE 1.6 0.0 0.1
16:09 9.2 8.8 97 1030.8 0.7 NE 1.6 0.0 0.1
16:10 9.2 8.8 97 1030.9 0.0 NE 1.6 0.0 0.1
16:12 9.1 8.7 97 1030.7 0.7 NE 1.6 0.0 0.1
16:13 9.1 8.7 97 1030.8 0.0 NE 1.6 0.0 0.1
16:14 9.0 8.6 97 1030.7 0.0 NE 0.7 0.0 0.1
16:16 9.0 8.6 97 1030.8 0.0 NE 0.7 0.0 0.1
16:17 9.0 8.6 97 1030.8 0.7 NE 0.7 0.0 0.1
16:18 8.9 8.5 97 1030.8 0.0 NE 0.7 0.0 0.1
16:19 8.9 8.5 97 1030.9 0.0 NE 0.7 0.0 0.1
16:20 8.8 8.4 97 1031.1 0.0 NE 0.7 0.0 0.1
16:21 8.8 8.4 97 1031.0 0.0 NE 0.7 0.0 0.1
16:22 8.8 8.4 97 1030.9 0.0 NE 0.7 0.0 0.1
16:24 8.7 8.3 97 1031.0 0.0 NE 0.7 0.0 0.1
16:25 8.7 8.3 97 1031.0 0.0 NE 0.7 0.0 0.1
16:26 8.6 8.2 97 1030.9 0.7 NE 1.6 0.0 0.1
16:27 8.6 8.2 97 1030.9 1.6 NE 1.6 0.0 0.1
16:28 8.6 8.2 97 1030.9 1.6 NE 1.6 0.0 0.1
16:29 8.5 8.1 97 1030.9 1.6 NE 1.6 0.0 0.1
16:30 8.5 8.2 98 1030.8 2.2 NE 2.2 0.0 0.1
16:31 8.5 8.1 97 1030.9 2.2 NE 2.2 0.0 0.1
16:32 8.4 8.1 98 1030.9 3.1 NE 3.1 0.0 0.1
16:33 8.4 8.0 97 1030.9 2.2 NE 3.1 0.0 0.1
16:34 8.3 8.0 98 1030.8 2.2 NE 3.8 0.0 0.1
16:35 8.3 8.0 98 1030.8 2.2 NE 3.8 0.0 0.1
16:36 8.2 7.9 98 1030.8 3.1 NE 3.8 0.0 0.1
16:37 8.2 7.9 98 1030.8 2.2 NE 3.8 0.0 0.1
16:38 8.2 7.9 98 1030.7 2.2 NE 3.8 0.0 0.1
16:39 8.1 7.8 98 1030.8 1.6 NE 3.8 0.0 0.1
16:40 8.1 7.8 98 1030.7 1.6 NE 3.8 0.0 0.1
16:41 8.1 7.8 98 1030.7 2.2 NE 3.8 0.0 0.1
16:42 8.1 7.8 98 1030.7 1.6 NE 3.8 0.0 0.1
16:43 8.1 7.8 98 1030.9 1.6 NE 3.8 0.0 0.1
16:44 8.0 7.7 98 1030.8 1.6 NE 3.1 0.0 0.1
16:45 8.0 7.7 98 1030.7 2.2 NE 3.1 0.0 0.1
16:46 8.0 7.7 98 1030.7 1.6 NE 2.2 0.0 0.1
16:47 8.0 7.7 98 1030.6 1.6 NE 2.2 0.0 0.1
16:49 7.9 7.6 98 1030.7 2.2 NE 2.2 0.0 0.1
16:50 7.9 7.6 98 1030.7 3.8 NE 3.8 0.0 0.1
16:51 7.9 7.6 98 1030.6 2.2 NE 3.8 0.0 0.1
16:52 7.8 7.7 99 1030.8 2.2 NE 3.8 0.0 0.1
16:53 7.8 7.7 99 1030.8 3.8 NE 3.8 0.0 0.1
16:54 7.8 7.7 99 1030.7 3.1 NE 3.8 0.0 0.1
16:55 7.8 7.7 99 1030.9 1.6 NE 3.8 0.0 0.1
16:56 7.7 7.6 99 1030.9 2.2 NE 3.8 0.0 0.1
16:57 7.7 7.6 99 1031.0 2.2 NE 3.8 0.0 0.1
16:58 7.7 7.6 99 1030.9 3.1 NE 3.8 0.0 0.1
16:59 7.7 7.6 99 1031.1 2.2 NE 3.8 0.0 0.1
17:01 7.7 7.6 99 1031.1 3.1 NE 3.8 0.0 0.1
17:02 7.7 7.6 99 1030.9 3.1 NE 3.8 0.0 0.1
17:03 7.7 7.6 99 1031.0 3.1 NE 3.1 0.0 0.1
17:04 7.7 7.6 99 1030.9 3.1 NE 3.1 0.0 0.1
17:05 7.5 7.4 99 1031.0 3.1 NE 3.1 0.0 0.1
17:06 7.5 7.4 99 1030.9 3.1 NE 3.1 0.0 0.1
17:08 7.5 7.4 99 1031.0 3.1 NE 3.8 0.0 0.1
17:09 7.4 7.3 99 1031.0 2.2 NE 3.8 0.0 0.1
17:11 7.4 7.3 99 1031.1 2.2 NE 3.8 0.0 0.1
17:12 7.4 7.3 99 1031.2 1.6 NE 3.8 0.0 0.1
17:13 7.4 7.3 99 1031.2 1.6 NE 3.8 0.0 0.1
17:15 7.4 7.3 99 1031.3 1.6 NE 3.8 0.0 0.1
17:16 7.4 7.3 99 1031.3 0.7 NE 3.8 0.0 0.1
17:17 7.4 7.3 99 1031.4 0.7 NE 3.8 0.0 0.1
17:18 7.3 7.2 99 1031.4 0.7 NE 3.1 0.0 0.1
17:19 7.3 7.2 99 1031.5 0.0 NE 2.2 0.0 0.1
17:20 7.3 7.2 99 1031.3 0.0 NE 2.2 0.0 0.1
17:21 7.3 7.2 99 1031.3 0.0 NE 1.6 0.0 0.1
17:22 7.3 7.2 99 1031.3 0.0 NE 1.6 0.0 0.1
17:23 7.2 7.1 99 1031.3 0.0 NE 1.6 0.0 0.1
17:24 7.2 7.1 99 1031.2 0.0 NE 1.6 0.0 0.1
17:26 7.1 7.0 99 1031.2 0.7 NE 0.7 0.0 0.1
17:27 7.1 7.0 99 1031.2 0.0 NE 0.7 0.0 0.1
17:28 7.1 7.0 99 1031.4 0.7 NE 0.7 0.0 0.1
17:29 7.1 7.0 99 1031.3 0.0 NE 0.7 0.0 0.1
17:30 7.0 6.9 99 1031.3 0.7 NE 0.7 0.0 0.1
17:31 7.0 6.9 99 1031.3 0.7 NE 0.7 0.0 0.1
17:32 6.9 6.8 99 1031.3 0.7 NE 0.7 0.0 0.1
17:34 6.9 6.8 99 1031.5 0.7 NE 0.7 0.0 0.1
17:35 6.9 6.8 99 1031.4 0.7 NE 2.2 0.0 0.1
17:36 6.9 6.8 99 1031.6 0.7 NE 2.2 0.0 0.1
17:37 6.8 6.7 99 1031.4 0.0 NE 2.2 0.0 0.1
17:39 6.8 6.7 99 1031.4 0.7 NE 2.2 0.0 0.1
17:40 6.8 6.7 99 1031.3 1.6 NE 2.2 0.0 0.1
17:41 6.8 6.7 99 1031.4 1.6 NE 2.2 0.0 0.1
17:42 6.8 6.7 99 1031.4 0.0 NE 2.2 0.0 0.1
17:43 6.7 6.6 99 1031.4 1.6 NE 2.2 0.0 0.1
17:44 6.7 6.6 99 1031.4 0.7 NE 1.6 0.0 0.1
17:45 6.7 6.6 99 1031.5 0.0 NE 1.6 0.0 0.1
17:46 6.6 6.5 99 1031.5 0.0 NE 1.6 0.0 0.1
17:48 6.6 6.5 99 1031.6 0.0 NE 1.6 0.0 0.1
17:49 6.6 6.5 99 1031.6 2.2 NE 2.2 0.0 0.1
17:50 6.5 6.4 99 1031.6 1.6 NE 2.2 0.0 0.1
17:51 6.4 6.3 99 1031.8 1.6 NE 2.2 0.0 0.1
17:52 6.4 6.3 99 1031.8 1.6 NE 2.2 0.0 0.1
17:54 6.4 6.3 99 1031.8 2.2 NE 2.2 0.0 0.1
17:55 6.3 6.2 99 1032.0 2.2 NE 2.2 0.0 0.1
17:56 6.3 6.2 99 1032.0 2.2 NE 2.2 0.0 0.1
17:57 6.3 6.2 99 1031.8 2.2 NE 2.2 0.0 0.1
17:58 6.3 6.2 99 1031.9 1.6 NE 2.2 0.0 0.1
17:59 6.2 6.1 99 1032.0 1.6 NE 2.2 0.0 0.1
18:01 6.2 6.1 99 1031.9 1.6 NE 2.2 0.0 0.1
18:02 6.2 6.1 99 1031.9 1.6 NE 2.2 0.0 0.1
18:03 6.2 6.1 99 1031.9 1.6 NE 2.2 0.0 0.1
18:04 6.2 6.1 99 1031.9 1.6 NE 2.2 0.0 0.1
18:05 6.2 6.1 99 1031.8 1.6 NE 2.2 0.0 0.1
18:07 6.2 6.1 99 1031.9 1.6 NE 2.2 0.0 0.1
18:09 6.2 6.1 99 1031.9 2.2 NE 2.2 0.0 0.1
18:10 6.2 6.1 99 1031.9 1.6 NE 2.2 0.0 0.1
18:12 6.2 6.1 99 1031.9 1.6 NE 2.2 0.0 0.1
18:14 6.2 6.1 99 1031.9 0.7 NE 2.2 0.0 0.1
18:15 6.2 6.1 99 1031.9 0.7 NE 2.2 0.0 0.1
18:17 6.2 6.1 99 1031.9 0.7 NE 2.2 0.0 0.1
18:19 6.2 6.1 99 1032.1 0.0 NE 1.6 0.0 0.1
18:20 6.2 6.1 99 1031.9 0.0 NE 1.6 0.0 0.1
18:22 6.1 6.0 99 1032.1 0.7 NE 1.6 0.0 0.1
18:23 6.0 5.9 99 1032.1 0.7 NE 0.7 0.0 0.1
18:24 5.9 5.8 99 1032.0 0.0 NE 0.7 0.0 0.1
18:25 5.8 5.7 99 1032.0 0.0 NE 0.7 0.0 0.1
18:26 5.8 5.7 99 1032.1 0.0 NE 0.7 0.0 0.1
18:28 5.7 5.6 99 1032.0 0.7 NE 0.7 0.0 0.1
18:29 5.6 5.5 99 1032.1 0.0 NE 1.6 0.0 0.1
18:31 5.6 5.5 99 1032.1 0.7 NE 1.6 0.0 0.1
18:32 5.5 5.4 99 1032.0 0.0 NE 1.6 0.0 0.1
18:33 5.5 5.4 99 1032.0 0.0 NE 1.6 0.0 0.1
18:34 5.5 5.4 99 1032.1 0.0 NE 1.6 0.0 0.1
18:35 5.5 5.4 99 1032.1 0.7 NE 1.6 0.0 0.1
18:37 5.4 5.3 99 1032.1 0.0 NE 1.6 0.0 0.1
18:38 5.4 5.3 99 1032.0 0.0 NE 1.6 0.0 0.1
18:39 5.3 5.2 99 1032.0 0.0 NE 0.7 0.0 0.1
18:41 5.3 5.2 99 1032.1 0.7 NE 0.7 0.0 0.1
18:42 5.3 5.2 99 1032.2 0.7 NE 0.7 0.0 0.1
18:43 5.3 5.2 99 1032.2 0.7 NE 0.7 0.0 0.1
18:45 5.3 5.2 99 1032.1 0.0 NE 0.7 0.0 0.1
18:47 5.2 5.1 99 1032.2 0.7 NE 0.7 0.0 0.1
18:48 5.2 5.1 99 1032.1 0.0 NE 0.7 0.0 0.1
18:49 5.2 5.1 99 1032.2 0.0 NE 0.7 0.0 0.1
18:50 5.2 5.1 99 1032.2 0.7 NE 0.7 0.0 0.1
18:51 5.1 5.0 99 1032.1 0.0 NE 0.7 0.0 0.1
18:52 5.1 5.0 99 1032.1 0.0 NE 0.7 0.0 0.1
18:54 5.1 5.0 99 1032.2 0.0 NE 0.7 0.0 0.1
18:55 5.1 5.0 99 1032.3 0.0 NE 0.7 0.0 0.1
18:56 5.1 5.0 99 1032.2 0.0 NE 0.7 0.0 0.1
18:57 5.0 4.9 99 1032.2 0.0 NE 0.7 0.0 0.1
18:59 5.0 4.9 99 1032.2 0.7 NE 0.7 0.0 0.1
19:00 5.0 4.9 99 1032.2 0.7 NE 0.7 0.0 0.1
19:01 5.0 4.9 99 1032.3 0.7 NE 0.7 0.0 0.1
19:02 5.0 4.9 99 1032.2 0.7 NE 0.7 0.0 0.1
19:03 5.0 4.9 99 1032.2 0.7 NE 0.7 0.0 0.1
19:04 5.0 4.9 99 1032.3 0.7 NE 0.7 0.0 0.1
19:06 5.0 4.9 99 1032.2 0.7 NE 0.7 0.0 0.1
19:07 4.9 4.8 99 1032.4 0.0 NE 0.7 0.0 0.1
19:09 4.8 4.7 99 1032.4 0.0 NE 0.7 0.0 0.1
19:10 4.9 4.8 99 1032.5 0.0 NE 0.7 0.0 0.1
19:12 4.9 4.8 99 1032.3 0.0 NE 0.7 0.0 0.1
19:13 4.9 4.8 99 1032.4 0.7 NE 0.7 0.0 0.1
19:15 4.9 4.8 99 1032.4 0.7 NE 0.7 0.0 0.1
19:17 4.9 4.8 99 1032.4 0.7 NE 0.7 0.0 0.1
19:18 5.0 4.9 99 1032.4 0.0 NE 0.7 0.0 0.1
19:19 5.0 4.9 99 1032.4 0.0 NE 0.7 0.0 0.1
19:20 5.0 4.9 99 1032.4 0.0 NE 0.7 0.0 0.1
19:21 5.0 4.9 99 1032.4 0.0 NE 0.7 0.0 0.1
19:22 5.0 4.9 99 1032.4 0.0 NE 0.7 0.0 0.1
19:24 5.0 4.9 99 1032.3 0.0 NE 0.7 0.0 0.1
19:25 5.1 5.0 99 1032.5 0.0 NE 0.7 0.0 0.1
19:26 5.0 4.9 99 1032.4 0.0 NE 0.7 0.0 0.1
19:27 5.1 5.0 99 1032.4 0.0 NE 0.0 0.0 0.1
19:28 5.0 4.9 99 1032.6 0.0 NE 0.0 0.0 0.1
19:29 5.0 4.9 99 1032.5 0.0 NE 0.0 0.0 0.1
19:30 5.0 4.9 99 1032.7 0.0 NE 0.0 0.0 0.1
19:32 5.0 4.9 99 1032.5 0.0 NE 0.0 0.0 0.1
19:34 5.0 4.9 99 1032.4 0.0 NE 0.0 0.0 0.1
19:35 5.0 4.9 99 1032.5 0.0 NE 0.0 0.0 0.1
19:37 5.0 4.9 99 1032.4 0.0 NE 0.0 0.0 0.1
19:39 4.9 4.8 99 1032.4 0.0 NE 0.0 0.0 0.1
19:41 5.0 4.9 99 1032.5 0.0 NE 0.0 0.0 0.1
19:42 4.9 4.8 99 1032.4 0.0 NE 0.0 0.0 0.1
19:43 4.9 4.8 99 1032.4 0.0 NE 0.0 0.0 0.1
19:45 5.0 4.9 99 1032.5 0.0 NE 0.0 0.0 0.1
19:46 5.0 4.9 99 1032.5 0.0 NE 0.0 0.0 0.1
19:47 5.0 4.9 99 1032.5 0.0 NE 0.0 0.0 0.1
19:49 5.0 4.9 99 1032.6 0.0 NE 0.0 0.0 0.1
19:50 5.0 4.9 99 1032.5 0.0 NE 0.0 0.0 0.1
19:51 5.0 4.9 99 1032.6 0.0 NE 0.0 0.0 0.1
19:53 5.0 4.9 99 1032.7 0.0 NE 0.0 0.0 0.1
19:54 5.0 4.9 99 1032.7 0.0 NE 0.0 0.0 0.1
19:55 5.0 4.9 99 1032.7 0.0 NE 0.0 0.0 0.1
19:56 5.0 4.9 99 1032.8 0.0 NE 0.0 0.0 0.1
19:58 4.9 4.8 99 1032.8 0.0 NE 0.0 0.0 0.1
19:59 5.0 4.9 99 1032.7 0.0 NE 0.0 0.0 0.1
20:00 5.0 4.9 99 1032.8 0.0 NE 0.0 0.0 0.1
20:02 5.0 4.9 99 1032.8 0.0 NE 0.0 0.0 0.1
20:03 5.0 4.9 99 1032.4 0.0 NE 0.0 0.0 0.1
20:04 5.0 4.9 99 1032.4 0.0 NE 0.0 0.0 0.1
20:06 5.0 4.9 99 1032.3 0.0 NE 0.0 0.0 0.1
20:08 5.0 4.9 99 1032.4 0.0 NE 0.7 0.0 0.1
20:10 5.1 5.0 99 1032.6 0.7 NE 1.6 0.0 0.1
20:13 5.0 4.9 99 1032.6 0.7 NE 1.6 0.0 0.1
20:16 5.1 5.0 99 1032.5 0.7 NE 1.6 0.0 0.1
20:18 5.1 5.0 99 1032.5 0.7 NE 1.6 0.0 0.1
20:20 5.1 5.0 99 1032.5 0.7 NE 1.6 0.0 0.1
20:22 5.1 5.0 99 1032.4 0.7 NE 0.7 0.0 0.1
20:24 5.2 5.1 99 1032.5 0.7 NE 1.6 0.0 0.1
20:27 5.2 5.1 99 1032.4 0.7 NE 1.6 0.0 0.1
20:30 5.3 5.2 99 1032.5 0.7 NE 1.6 0.0 0.1
20:32 5.3 5.2 99 1032.6 0.7 NE 1.6 0.0 0.1
20:35 5.3 5.2 99 1032.6 0.7 NE 1.6 0.0 0.1
20:38 5.3 5.2 99 1032.6 0.7 NE 1.6 0.0 0.1
20:40 5.3 5.2 99 1032.5 0.7 NE 1.6 0.0 0.1
20:43 5.3 5.2 99 1032.6 0.7 NE 1.6 0.0 0.1
20:45 5.3 5.2 99 1032.5 0.7 NE 0.7 0.0 0.1
20:47 5.3 5.2 99 1032.6 0.7 NE 0.7 0.0 0.1
20:49 5.3 5.2 99 1032.5 0.7 NE 0.7 0.0 0.1
20:51 5.3 5.2 99 1032.4 1.6 NE 2.2 0.0 0.1
20:53 5.3 5.2 99 1032.5 0.7 NE 2.2 0.0 0.1
20:55 5.3 5.2 99 1032.4 2.2 NE 2.2 0.0 0.1
20:57 5.3 5.2 99 1032.4 1.6 NE 2.2 0.0 0.1
20:58 5.3 5.2 99 1032.5 1.6 NE 2.2 0.0 0.1
20:59 5.3 5.2 99 1032.4 0.7 NE 2.2 0.0 0.1
21:00 5.3 5.2 99 1032.5 0.7 NE 2.2 0.0 0.1
21:02 5.3 5.2 99 1032.4 0.7 NE 2.2 0.0 0.1
21:03 5.3 5.2 99 1032.4 0.7 NE 2.2 0.0 0.1
21:04 5.3 5.2 99 1032.4 0.7 NE 2.2 0.0 0.1
21:05 5.3 5.2 99 1032.4 0.7 NE 2.2 0.0 0.1
21:06 5.3 5.2 99 1032.5 0.7 NE 2.2 0.0 0.1
21:08 5.3 5.2 99 1032.5 0.7 NE 0.7 0.0 0.1
21:10 5.3 5.2 99 1032.4 0.7 NE 0.7 0.0 0.1
21:12 5.3 5.2 99 1032.4 0.7 NE 0.7 0.0 0.1
21:13 5.3 5.2 99 1032.4 0.7 NE 0.7 0.0 0.1
21:15 5.3 5.2 99 1032.4 0.7 NE 0.7 0.0 0.1
21:16 5.3 5.2 99 1032.3 0.7 NE 0.7 0.0 0.1
21:18 5.3 5.2 99 1032.2 0.7 NE 0.7 0.0 0.1
21:20 5.3 5.2 99 1032.3 0.7 NE 0.7 0.0 0.1
21:21 5.3 5.2 99 1032.4 0.7 NE 0.7 0.0 0.1
21:22 5.3 5.2 99 1032.3 0.7 NE 0.7 0.0 0.1
21:23 5.3 5.2 99 1032.3 0.7 NE 0.7 0.0 0.1
21:24 5.3 5.2 99 1032.3 0.7 NE 0.7 0.0 0.1
21:25 5.4 5.3 99 1032.3 0.7 NE 0.7 0.0 0.1
21:26 5.3 5.2 99 1032.2 0.7 NE 0.7 0.0 0.1
21:27 5.4 5.3 99 1032.3 0.7 NE 0.7 0.0 0.1
21:29 5.3 5.2 99 1032.3 1.6 NE 1.6 0.0 0.1
21:30 5.4 5.3 99 1032.3 0.7 NE 1.6 0.0 0.1
21:31 5.4 5.3 99 1032.3 0.7 NE 1.6 0.0 0.1
21:32 5.4 5.3 99 1032.4 0.7 NE 1.6 0.0 0.1
21:33 5.4 5.3 99 1032.4 0.7 NE 1.6 0.0 0.1
21:34 5.4 5.3 99 1032.4 1.6 NE 1.6 0.0 0.1
21:35 5.4 5.3 99 1032.4 1.6 NE 1.6 0.0 0.1
21:36 5.4 5.3 99 1032.6 1.6 NE 1.6 0.0 0.1
21:37 5.5 5.4 99 1032.4 1.6 NE 1.6 0.0 0.1
21:39 5.4 5.3 99 1032.4 1.6 NE 1.6 0.0 0.1
21:40 5.4 5.3 99 1032.5 1.6 NE 1.6 0.0 0.1
21:41 5.5 5.4 99 1032.4 1.6 NE 1.6 0.0 0.1
21:42 5.5 5.4 99 1032.3 0.7 NE 1.6 0.0 0.1
21:43 5.5 5.4 99 1032.3 0.7 NE 1.6 0.0 0.1
21:44 5.5 5.4 99 1032.4 0.0 NE 1.6 0.0 0.1
21:45 5.5 5.4 99 1032.4 0.0 NE 1.6 0.0 0.1
21:47 5.5 5.4 99 1032.3 0.0 NE 1.6 0.0 0.1
21:48 5.5 5.4 99 1032.4 0.7 NE 1.6 0.0 0.1
21:49 5.5 5.4 99 1032.4 0.7 NE 1.6 0.0 0.1
21:50 5.5 5.4 99 1032.5 0.7 NE 1.6 0.0 0.1
21:52 5.5 5.4 99 1032.2 0.7 NE 0.7 0.0 0.1
21:53 5.5 5.4 99 1032.2 0.7 NE 0.7 0.0 0.1
21:54 5.5 5.4 99 1032.2 0.7 NE 0.7 0.0 0.1
21:56 5.5 5.4 99 1032.3 0.7 NE 0.7 0.0 0.1
21:57 5.5 5.4 99 1032.4 0.7 NE 0.7 0.0 0.1
21:58 5.5 5.4 99 1032.4 1.6 NE 1.6 0.0 0.1
21:59 5.5 5.4 99 1032.5 2.2 NE 2.2 0.0 0.1
22:01 5.5 5.4 99 1032.5 2.2 NE 2.2 0.0 0.1
22:02 5.5 5.4 99 1032.4 2.2 NE 2.2 0.0 0.1
22:03 5.5 5.4 99 1032.5 2.2 NE 2.2 0.0 0.1
22:04 5.5 5.4 99 1032.5 2.2 NE 2.2 0.0 0.1
22:05 5.5 5.4 99 1032.6 0.7 SE 2.2 0.0 0.1
22:06 5.5 5.4 99 1032.7 0.7 SE 2.2 0.0 0.1
22:08 5.5 5.4 99 1032.7 2.2 SE 2.2 0.0 0.1
22:10 5.5 5.4 99 1033.0 0.7 SE 2.2 0.0 0.1
22:12 5.5 5.4 99 1032.9 0.7 SE 2.2 0.0 0.1
22:13 5.6 5.5 99 1033.1 1.6 SE 2.2 0.0 0.1
22:15 5.6 5.5 99 1033.2 0.7 SE 2.2 0.0 0.1
22:17 5.6 5.5 99 1033.2 1.6 SE 2.2 0.0 0.1
22:18 5.5 5.4 99 1033.2 2.2 SE 2.2 0.0 0.1
22:20 5.6 5.5 99 1033.1 2.2 SE 2.2 0.0 0.1
22:22 5.6 5.5 99 1033.0 0.7 SE 2.2 0.0 0.1
22:23 5.6 5.5 99 1032.9 2.2 SE 2.2 0.0 0.1
22:24 5.6 5.5 99 1033.0 2.2 SE 2.2 0.0 0.1
22:26 5.5 5.4 99 1032.9 1.6 SE 2.2 0.0 0.1
22:27 5.5 5.4 99 1032.9 1.6 SE 2.2 0.0 0.1
22:29 5.6 5.5 99 1032.9 1.6 SE 2.2 0.0 0.1
22:30 5.5 5.4 99 1032.8 1.6 SE 2.2 0.0 0.1
22:33 5.5 5.4 99 1032.9 1.6 SE 2.2 0.0 0.1
22:34 5.5 5.4 99 1033.0 0.7 SE 2.2 0.0 0.1
22:35 5.6 5.5 99 1032.8 0.7 SE 1.6 0.0 0.1
22:37 5.6 5.5 99 1032.8 1.6 SE 1.6 0.0 0.1
22:38 5.5 5.4 99 1032.9 0.7 SE 1.6 0.0 0.1
22:39 5.5 5.4 99 1033.1 1.6 SE 1.6 0.0 0.1
22:40 5.5 5.4 99 1032.8 1.6 SE 2.2 0.0 0.1
22:42 5.5 5.4 99 1033.1 0.7 SE 2.2 0.0 0.1
22:43 5.5 5.4 99 1033.0 0.0 SE 2.2 0.0 0.1
22:44 5.4 5.3 99 1033.0 0.0 SE 2.2 0.0 0.1
22:46 5.4 5.3 99 1033.2 0.0 SE 2.2 0.0 0.1
22:47 6.4 6.3 99 1033.1 0.7 SE 2.2 0.0 0.1
22:49 5.4 5.3 99 1033.2 1.6 SE 2.2 0.0 0.1
22:50 5.4 5.3 99 1033.2 1.6 SE 1.6 0.0 0.1
22:51 5.4 5.3 99 1033.2 0.7 SE 1.6 0.0 0.1
22:53 5.4 5.3 99 1033.0 0.7 SE 1.6 0.0 0.1
22:54 5.4 5.3 99 1033.0 0.7 SE 1.6 0.0 0.1
22:55 5.3 5.2 99 1033.1 0.7 SE 1.6 0.0 0.1
22:57 5.3 5.2 99 1033.2 1.6 SE 1.6 0.0 0.1
22:58 5.3 5.2 99 1033.2 0.7 SE 1.6 0.0 0.1
22:59 5.3 5.2 99 1033.4 0.7 SE 1.6 0.0 0.1
23:01 5.3 5.2 99 1033.3 0.7 SE 1.6 0.0 0.1
23:02 5.3 5.2 99 1033.3 0.7 SE 1.6 0.0 0.1
23:04 5.3 5.2 99 1033.2 0.7 SE 1.6 0.0 0.1
23:06 5.3 5.2 99 1033.3 0.7 SE 1.6 0.0 0.1
23:07 5.3 5.2 99 1033.2 0.7 SE 1.6 0.0 0.1
23:09 5.3 5.2 99 1033.2 0.7 SE 0.7 0.0 0.1
23:10 5.3 5.2 99 1033.4 0.7 SE 0.7 0.0 0.1
23:12 5.3 5.2 99 1033.5 1.6 SE 1.6 0.0 0.1
23:14 5.3 5.2 99 1033.4 0.7 SE 1.6 0.0 0.1
23:15 5.3 5.2 99 1033.3 0.7 SE 1.6 0.0 0.1
23:17 5.3 5.2 99 1033.2 1.6 SE 1.6 0.0 0.1
23:18 5.3 5.2 99 1033.2 0.7 SE 1.6 0.0 0.1
23:20 5.3 5.2 99 1033.3 1.6 SE 1.6 0.0 0.1
23:22 5.3 5.2 99 1033.2 0.7 SE 1.6 0.0 0.1
23:23 5.3 5.2 99 1033.2 1.6 SE 1.6 0.0 0.1
23:24 5.3 5.2 99 1033.2 1.6 SE 1.6 0.0 0.1
23:25 5.3 5.2 99 1033.1 1.6 SE 1.6 0.0 0.1
23:27 5.3 5.2 99 1033.2 0.7 SE 1.6 0.0 0.1
23:28 5.3 5.2 99 1033.2 1.6 SE 1.6 0.0 0.1
23:29 5.3 5.2 99 1033.1 0.7 SE 1.6 0.0 0.1
23:30 5.3 5.2 99 1033.2 0.7 SE 1.6 0.0 0.1
23:32 5.3 5.2 99 1033.0 1.6 SE 1.6 0.0 0.1
23:33 5.3 5.2 99 1033.2 2.2 SE 2.2 0.0 0.1
23:34 5.3 5.2 99 1033.2 1.6 SE 2.2 0.0 0.1
23:35 5.3 5.2 99 1033.1 0.7 SE 2.2 0.0 0.1
23:36 5.3 5.2 99 1033.2 0.7 SE 2.2 0.0 0.1
23:37 5.4 5.3 99 1033.3 1.6 SE 2.2 0.0 0.1
23:39 5.4 5.3 99 1033.2 1.6 SE 2.2 0.0 0.1
23:40 5.4 5.3 99 1033.2 2.2 SE 2.2 0.0 0.1
23:41 5.4 5.3 99 1033.3 3.8 SE 3.8 0.0 0.1
23:42 5.4 5.3 99 1033.2 3.1 SE 3.8 0.0 0.1
23:43 5.4 5.3 99 1033.3 3.1 SE 3.8 0.0 0.1
23:44 5.4 5.3 99 1033.4 1.6 SE 3.8 0.0 0.1
23:45 5.4 5.3 99 1033.4 1.6 SE 3.8 0.0 0.1
23:46 5.4 5.3 99 1033.3 1.6 SE 3.8 0.0 0.1
23:47 5.5 5.4 99 1033.2 2.2 SE 3.8 0.0 0.1
23:49 5.5 5.4 99 1033.4 1.6 SE 3.8 0.0 0.1
23:50 5.5 5.4 99 1033.3 1.6 SE 3.8 0.0 0.1
23:51 5.5 5.4 99 1033.3 2.2 SE 3.1 0.0 0.1
23:52 5.5 5.4 99 1033.4 2.2 SE 3.1 0.0 0.1
23:53 5.5 5.4 99 1033.2 1.6 SE 2.2 0.0 0.1
23:54 5.5 5.4 99 1033.4 0.7 SE 2.2 0.0 0.1
23:55 5.5 5.4 99 1033.2 0.7 SE 2.2 0.0 0.1
23:56 5.5 5.4 99 1033.2 2.2 SE 2.2 0.0 0.1
23:58 5.5 5.4 99 1033.2 3.1 SE 3.1 0.0 0.1
23:59 5.5 5.4 99 1033.2 2.2 SE 3.1 0.0 0.1

UK - WEATHER STATION TOPSITES - UK World Weather Websites

This is a private weather station, never base important decisions or events on data from this weather station. Although every effort has been made to make the data as accurate as possible it does not meet MetOffice standards. It is proved as a guide of local weather conditions. We accept no liability for any loss which may arise from use of the data.

Copyright © Carnkie Weather 2009 - 2018.